CAL063 RCTP-LOWW

Flight info

Callsign CAL063
Flight time 13h 18m
Altitude 34000
Route CHALI1C CHALI T3 MKG A1 KADLO T1 KAPLI/N0501F360 DCT ALLEY V10 SIKOU/K0928S1100 R339 WUY R474 TEBAK/K0926F360 R474 NOB W21 BQ B214 LADON/N0502F360 B214 AKSAG B465 CEA/N0496F380 R460 LKN M890 SULOM A466 DI N644 LEMOD/N0483F400 A909 RODAR N644 ADEKI DCT BADIR DCT LAGAS DCT FOQUS DCT SARPI UM10 GOKPA UL746 ODERO L746 LUGEB DCT BUDOP DCT BALUX DCT TORNO DCT NATEX NATEX2W
Aircraft A359/H-V/N

Departure

Time 2026-04-20 16:09
Airport Taiwan Taoyuan International Airport (RCTP)

Arrival

Time 2026-04-21 05:28
Airport Vienna International Airport (LOWW)
Time Latitude Longitude Altitude Speed Heading
2026-04-20 15:52 25.08205 121.23474 107 ft 0 kts 139°
2026-04-20 15:54 25.08207 121.23472 106 ft 3 kts 139°
2026-04-20 15:54 25.08227 121.23453 105 ft 4 kts 139°
2026-04-20 15:55 25.08248 121.23433 104 ft 4 kts 139°
2026-04-20 15:55 25.08267 121.23415 106 ft 2 kts 139°
2026-04-20 15:55 25.08285 121.23399 106 ft 4 kts 156°
2026-04-20 15:55 25.08305 121.23393 106 ft 4 kts 192°
2026-04-20 15:56 25.08324 121.23402 105 ft 4 kts 228°
2026-04-20 15:56 25.08341 121.23425 106 ft 4 kts 231°
2026-04-20 15:56 25.08345 121.23431 106 ft 0 kts 229°
2026-04-20 15:58 25.08344 121.23430 106 ft 2 kts 229°
2026-04-20 15:59 25.08323 121.23403 105 ft 6 kts 229°
2026-04-20 15:59 25.08296 121.23368 106 ft 6 kts 229°
2026-04-20 15:59 25.08266 121.23330 107 ft 7 kts 229°
2026-04-20 15:59 25.08232 121.23285 107 ft 9 kts 229°
2026-04-20 16:00 25.08186 121.23226 107 ft 11 kts 229°
2026-04-20 16:00 25.08175 121.23155 107 ft 10 kts 300°
2026-04-20 16:00 25.08198 121.23082 107 ft 11 kts 257°
2026-04-20 16:00 25.08147 121.23013 107 ft 13 kts 226°
2026-04-20 16:01 25.08087 121.22937 106 ft 13 kts 229°
2026-04-20 16:01 25.08026 121.22860 107 ft 13 kts 229°
2026-04-20 16:01 25.07968 121.22785 107 ft 13 kts 229°
2026-04-20 16:01 25.07911 121.22710 106 ft 13 kts 230°
2026-04-20 16:02 25.07853 121.22635 107 ft 13 kts 229°
2026-04-20 16:02 25.07795 121.22562 106 ft 13 kts 229°
2026-04-20 16:02 25.07738 121.22489 106 ft 13 kts 229°
2026-04-20 16:02 25.07680 121.22415 107 ft 13 kts 229°
2026-04-20 16:03 25.07622 121.22341 106 ft 13 kts 229°
2026-04-20 16:03 25.07564 121.22268 107 ft 13 kts 229°
2026-04-20 16:03 25.07505 121.22194 106 ft 13 kts 228°
2026-04-20 16:03 25.07445 121.22119 106 ft 13 kts 229°
2026-04-20 16:04 25.07385 121.22044 107 ft 13 kts 229°
2026-04-20 16:04 25.07326 121.21969 107 ft 13 kts 229°
2026-04-20 16:04 25.07268 121.21894 107 ft 13 kts 230°
2026-04-20 16:04 25.07217 121.21828 106 ft 10 kts 229°
2026-04-20 16:05 25.07178 121.21778 106 ft 6 kts 232°
2026-04-20 16:05 25.07181 121.21738 107 ft 5 kts 297°
2026-04-20 16:05 25.07203 121.21712 107 ft 5 kts 318°
2026-04-20 16:05 25.07214 121.21701 107 ft 0 kts 318°
2026-04-20 16:07 25.07215 121.21700 107 ft 1 kts 318°
2026-04-20 16:07 25.07235 121.21681 107 ft 7 kts 318°
2026-04-20 16:07 25.07274 121.21642 108 ft 8 kts 318°
2026-04-20 16:07 25.07306 121.21628 108 ft 4 kts 10°
2026-04-20 16:08 25.07330 121.21650 108 ft 5 kts 51°
2026-04-20 16:08 25.07339 121.21662 107 ft 0 kts 47°
2026-04-20 16:08 25.07386 121.21720 105 ft 34 kts 49°
2026-04-20 16:08 25.07693 121.22110 108 ft 99 kts 48°
2026-04-20 16:09 25.08276 121.22853 107 ft 156 kts 50°
2026-04-20 16:09 25.09058 121.23835 510 ft 172 kts 51°
2026-04-20 16:09 25.09845 121.24837 1223 ft 173 kts 51°
2026-04-20 16:09 25.10633 121.25849 1623 ft 175 kts 52°
2026-04-20 16:10 25.11454 121.26886 1807 ft 186 kts 50°
2026-04-20 16:10 25.12621 121.27615 1853 ft 206 kts 13°
2026-04-20 16:10 25.14093 121.27400 1926 ft 225 kts 335°
2026-04-20 16:10 25.15363 121.26331 2119 ft 237 kts 318°
2026-04-20 16:11 25.16612 121.25051 2235 ft 254 kts 318°
2026-04-20 16:11 25.17959 121.23716 2502 ft 265 kts 319°
2026-04-20 16:11 25.19351 121.22363 2939 ft 268 kts 320°
2026-04-20 16:11 25.20762 121.20995 3439 ft 270 kts 320°
2026-04-20 16:12 25.22175 121.19625 3938 ft 271 kts 320°
2026-04-20 16:12 25.23593 121.18250 4452 ft 272 kts 319°
2026-04-20 16:12 25.24986 121.16876 4967 ft 272 kts 316°
2026-04-20 16:12 25.26158 121.15218 5303 ft 280 kts 298°
2026-04-20 16:13 25.26724 121.13124 5490 ft 293 kts 272°
2026-04-20 16:13 25.26304 121.10897 5679 ft 305 kts 242°
2026-04-20 16:13 25.24979 121.09020 5921 ft 317 kts 226°
2026-04-20 16:13 25.23378 121.07282 6166 ft 328 kts 225°
2026-04-20 16:14 25.21720 121.05486 6394 ft 339 kts 225°
2026-04-20 16:14 25.20031 121.03624 6704 ft 346 kts 226°
2026-04-20 16:14 25.18326 121.01723 7109 ft 349 kts 226°
2026-04-20 16:14 25.16617 120.99807 7546 ft 352 kts 226°
2026-04-20 16:15 25.14899 120.97876 8012 ft 354 kts 226°
2026-04-20 16:15 25.13171 120.95930 8474 ft 355 kts 226°
2026-04-20 16:15 25.11440 120.93979 8950 ft 357 kts 226°
2026-04-20 16:15 25.09694 120.92012 9400 ft 360 kts 226°
2026-04-20 16:16 25.07936 120.90032 9865 ft 362 kts 226°
2026-04-20 16:16 25.06173 120.88046 10282 ft 364 kts 226°
2026-04-20 16:16 25.04394 120.86042 10656 ft 366 kts 226°
2026-04-20 16:16 25.02606 120.84031 11037 ft 368 kts 226°
2026-04-20 16:17 25.00807 120.82006 11423 ft 371 kts 226°
2026-04-20 16:17 24.99018 120.79996 11789 ft 373 kts 226°
2026-04-20 16:17 24.97192 120.77943 12158 ft 376 kts 226°
2026-04-20 16:17 24.95356 120.75881 12529 ft 378 kts 226°
2026-04-20 16:18 24.93512 120.73810 12889 ft 381 kts 226°
2026-04-20 16:18 24.91645 120.71716 13237 ft 383 kts 226°
2026-04-20 16:18 24.89773 120.69615 13575 ft 385 kts 226°
2026-04-20 16:18 24.87889 120.67503 13902 ft 388 kts 226°
2026-04-20 16:19 24.85995 120.65380 14205 ft 390 kts 226°
2026-04-20 16:19 24.84089 120.63245 14505 ft 392 kts 226°
2026-04-20 16:19 24.82174 120.61101 14829 ft 393 kts 226°
2026-04-20 16:19 24.80254 120.58952 15148 ft 395 kts 226°
2026-04-20 16:20 24.78320 120.56788 15456 ft 397 kts 226°
2026-04-20 16:20 24.76378 120.54617 15770 ft 399 kts 226°
2026-04-20 16:20 24.74428 120.52438 16093 ft 400 kts 226°
2026-04-20 16:20 24.72375 120.50366 16406 ft 402 kts 220°
2026-04-20 16:21 24.70152 120.48482 16706 ft 405 kts 217°
2026-04-20 16:21 24.67869 120.46725 17014 ft 407 kts 215°
2026-04-20 16:21 24.65514 120.44989 17323 ft 408 kts 214°
2026-04-20 16:21 24.63143 120.43259 17641 ft 410 kts 215°
2026-04-20 16:22 24.60764 120.41513 17940 ft 412 kts 215°
2026-04-20 16:22 24.58393 120.39754 18228 ft 414 kts 215°
2026-04-20 16:22 24.56004 120.37965 18498 ft 415 kts 216°
2026-04-20 16:22 24.53625 120.36157 18754 ft 416 kts 217°
2026-04-20 16:23 24.51401 120.34121 19018 ft 416 kts 224°
2026-04-20 16:23 24.49317 120.31919 19279 ft 417 kts 226°
2026-04-20 16:23 24.47304 120.29619 19522 ft 418 kts 228°
2026-04-20 16:23 24.45327 120.27267 19775 ft 419 kts 229°
2026-04-20 16:24 24.43355 120.24896 20034 ft 421 kts 229°
2026-04-20 16:24 24.41376 120.22523 20279 ft 422 kts 229°
2026-04-20 16:24 24.39382 120.20150 20531 ft 423 kts 228°
2026-04-20 16:24 24.37373 120.17774 20770 ft 424 kts 228°
2026-04-20 16:25 24.35383 120.15434 21010 ft 426 kts 228°
2026-04-20 16:25 24.33356 120.13056 21259 ft 427 kts 228°
2026-04-20 16:25 24.31326 120.10680 21490 ft 428 kts 228°
2026-04-20 16:25 24.29286 120.08293 21729 ft 429 kts 228°
2026-04-20 16:26 24.27237 120.05897 21979 ft 430 kts 228°
2026-04-20 16:26 24.25187 120.03502 22210 ft 432 kts 228°
2026-04-20 16:26 24.23135 120.01103 22457 ft 433 kts 228°
2026-04-20 16:26 24.21064 119.98686 22692 ft 434 kts 228°
2026-04-20 16:27 24.18990 119.96269 22929 ft 435 kts 229°
2026-04-20 16:27 24.16916 119.93847 23162 ft 437 kts 229°
2026-04-20 16:27 24.14833 119.91414 23395 ft 438 kts 229°
2026-04-20 16:27 24.12746 119.88977 23623 ft 439 kts 229°
2026-04-20 16:28 24.10655 119.86537 23816 ft 440 kts 229°
2026-04-20 16:28 24.08552 119.84092 24023 ft 441 kts 228°
2026-04-20 16:28 24.06437 119.81636 24204 ft 442 kts 229°
2026-04-20 16:28 24.04328 119.79181 24418 ft 443 kts 229°
2026-04-20 16:29 24.02215 119.76719 24617 ft 444 kts 229°
2026-04-20 16:29 24.00118 119.74278 24808 ft 445 kts 229°
2026-04-20 16:29 23.97998 119.71812 25007 ft 446 kts 229°
2026-04-20 16:29 23.95841 119.69305 25222 ft 447 kts 229°
2026-04-20 16:30 23.93735 119.66860 25424 ft 448 kts 229°
2026-04-20 16:30 23.91599 119.64381 25617 ft 449 kts 229°
2026-04-20 16:30 23.89452 119.61892 25819 ft 450 kts 229°
2026-04-20 16:30 23.87301 119.59399 26026 ft 451 kts 229°
2026-04-20 16:31 23.85147 119.56904 26250 ft 452 kts 229°
2026-04-20 16:31 23.82986 119.54401 26438 ft 453 kts 229°
2026-04-20 16:31 23.80822 119.51897 26659 ft 454 kts 229°
2026-04-20 16:31 23.78650 119.49385 26859 ft 455 kts 229°
2026-04-20 16:32 23.76476 119.46873 27065 ft 456 kts 229°
2026-04-20 16:32 23.74288 119.44352 27277 ft 457 kts 229°
2026-04-20 16:32 23.72100 119.41829 27466 ft 458 kts 229°
2026-04-20 16:32 23.69906 119.39295 27696 ft 459 kts 229°
2026-04-20 16:33 23.67707 119.36755 27905 ft 460 kts 229°
2026-04-20 16:33 23.65506 119.34215 28102 ft 462 kts 229°
2026-04-20 16:33 23.63296 119.31665 28315 ft 463 kts 229°
2026-04-20 16:33 23.61108 119.29144 28496 ft 464 kts 229°
2026-04-20 16:34 23.58885 119.26584 28688 ft 465 kts 229°
2026-04-20 16:34 23.56657 119.24020 28863 ft 466 kts 229°
2026-04-20 16:34 23.54423 119.21451 29052 ft 467 kts 229°
2026-04-20 16:34 23.52185 119.18879 29217 ft 468 kts 229°
2026-04-20 16:35 23.49939 119.16299 29381 ft 470 kts 229°
2026-04-20 16:35 23.47685 119.13711 29535 ft 471 kts 229°
2026-04-20 16:35 23.45431 119.11125 29710 ft 472 kts 229°
2026-04-20 16:35 23.43166 119.08527 29874 ft 473 kts 229°
2026-04-20 16:36 23.41637 119.06774 29979 ft 474 kts 229°
2026-04-20 16:36 23.38628 119.03326 30167 ft 475 kts 229°
2026-04-20 16:36 23.34834 118.98982 30383 ft 477 kts 229°
2026-04-20 16:37 23.32549 118.96367 30532 ft 477 kts 229°
2026-04-20 16:37 23.30261 118.93752 30739 ft 476 kts 229°
2026-04-20 16:37 23.27981 118.91148 30951 ft 475 kts 229°
2026-04-20 16:37 23.25703 118.88546 31155 ft 474 kts 229°
2026-04-20 16:38 23.23430 118.85951 31356 ft 473 kts 229°
2026-04-20 16:38 23.21162 118.83363 31549 ft 473 kts 230°
2026-04-20 16:38 23.18894 118.80777 31742 ft 472 kts 230°
2026-04-20 16:38 23.16632 118.78199 31933 ft 471 kts 230°
2026-04-20 16:39 23.12105 118.73042 32007 ft 471 kts 230°
2026-04-20 16:39 23.07574 118.67886 32002 ft 472 kts 230°
2026-04-20 16:40 23.03034 118.62725 32169 ft 472 kts 230°
2026-04-20 16:40 23.00800 118.60189 32385 ft 470 kts 230°
2026-04-20 16:40 22.98540 118.57625 32585 ft 469 kts 230°
2026-04-20 16:41 22.96163 118.55192 32775 ft 472 kts 224°
2026-04-20 16:41 22.93487 118.53093 32926 ft 477 kts 216°
2026-04-20 16:41 22.90633 118.51251 33214 ft 474 kts 214°
2026-04-20 16:41 22.87782 118.49528 33750 ft 464 kts 214°
2026-04-20 16:42 22.84969 118.47879 33975 ft 456 kts 214°
2026-04-20 16:42 22.82182 118.46259 34000 ft 453 kts 214°
2026-04-20 16:42 22.76629 118.43021 33997 ft 453 kts 214°
2026-04-20 16:43 22.71092 118.39768 33996 ft 453 kts 214°
2026-04-20 16:43 22.65589 118.36531 33994 ft 453 kts 214°
2026-04-20 16:44 22.60052 118.33278 33993 ft 453 kts 214°
2026-04-20 16:44 22.54515 118.30025 33994 ft 453 kts 214°
2026-04-20 16:45 22.48968 118.26770 33992 ft 453 kts 214°
2026-04-20 16:45 22.43414 118.23517 33999 ft 454 kts 214°
2026-04-20 16:46 22.37856 118.20268 33986 ft 454 kts 214°
2026-04-20 16:46 22.32355 118.17029 33983 ft 450 kts 211°
2026-04-20 16:47 22.26875 118.13816 33985 ft 446 kts 211°
2026-04-20 16:47 22.21407 118.10631 33985 ft 446 kts 211°
2026-04-20 16:48 22.15945 118.07444 33990 ft 447 kts 211°
2026-04-20 16:48 22.10479 118.04256 33985 ft 447 kts 211°
2026-04-20 16:49 22.04998 118.01063 33984 ft 447 kts 211°
2026-04-20 16:49 21.99561 117.97899 33987 ft 447 kts 211°
2026-04-20 16:50 21.94044 117.94692 33986 ft 447 kts 211°
2026-04-20 16:50 21.88598 117.91529 33981 ft 448 kts 211°
2026-04-20 16:51 21.83108 117.88344 33984 ft 448 kts 211°
2026-04-20 16:51 21.77620 117.85162 33983 ft 448 kts 211°
2026-04-20 16:52 21.72136 117.81985 33981 ft 448 kts 211°
2026-04-20 16:52 21.66645 117.78807 33984 ft 448 kts 211°
2026-04-20 16:53 21.61148 117.75628 33977 ft 448 kts 211°
2026-04-20 16:53 21.55697 117.72478 33981 ft 448 kts 211°
2026-04-20 16:54 21.50203 117.69307 33977 ft 448 kts 211°
2026-04-20 16:54 21.44705 117.66136 33977 ft 448 kts 211°
2026-04-20 16:55 21.39204 117.62965 33977 ft 449 kts 211°
2026-04-20 16:55 21.33701 117.59797 33976 ft 449 kts 211°
2026-04-20 16:56 21.28189 117.56625 33974 ft 449 kts 211°
2026-04-20 16:56 21.23097 117.52826 33975 ft 444 kts 225°
2026-04-20 16:57 21.19233 117.47725 33978 ft 441 kts 241°
2026-04-20 16:57 21.16991 117.41650 33979 ft 440 kts 257°
2026-04-20 16:58 21.16410 117.35156 33976 ft 441 kts 267°
2026-04-20 16:58 21.16346 117.28575 33974 ft 442 kts 268°
2026-04-20 16:59 21.16323 117.21990 33976 ft 442 kts 268°
2026-04-20 16:59 21.16265 117.15401 33975 ft 442 kts 268°
2026-04-20 17:00 21.16138 117.05532 33975 ft 441 kts 268°
2026-04-20 17:01 21.16047 116.98968 33974 ft 441 kts 268°
2026-04-20 17:01 21.15956 116.92445 33978 ft 440 kts 267°
2026-04-20 17:02 21.15862 116.85883 33973 ft 440 kts 267°
2026-04-20 17:02 21.15767 116.79326 33978 ft 440 kts 267°
2026-04-20 17:03 21.15668 116.72767 33979 ft 439 kts 267°
2026-04-20 17:03 21.15567 116.66230 33973 ft 439 kts 267°
2026-04-20 17:04 21.15463 116.59687 33974 ft 439 kts 267°
2026-04-20 17:04 21.15358 116.53179 33972 ft 439 kts 267°
2026-04-20 17:05 21.15250 116.46630 33969 ft 439 kts 267°
2026-04-20 17:05 21.15139 116.40084 33969 ft 439 kts 267°
2026-04-20 17:06 21.15025 116.33540 33973 ft 439 kts 267°
2026-04-20 17:06 21.14909 116.26998 33977 ft 441 kts 267°
2026-04-20 17:07 21.14788 116.20413 33973 ft 449 kts 267°
2026-04-20 17:07 21.14663 116.13658 33971 ft 457 kts 267°
2026-04-20 17:08 21.14533 116.06778 33970 ft 465 kts 267°
2026-04-20 17:08 21.14398 115.99796 33966 ft 470 kts 267°
2026-04-20 17:09 21.14262 115.92799 33966 ft 470 kts 267°
2026-04-20 17:09 21.14121 115.85797 33968 ft 470 kts 267°
2026-04-20 17:10 21.13979 115.78842 33963 ft 470 kts 267°
2026-04-20 17:10 21.13832 115.71839 33960 ft 470 kts 267°
2026-04-20 17:11 21.13681 115.64816 33961 ft 471 kts 267°
2026-04-20 17:11 21.13528 115.57795 33961 ft 471 kts 267°
2026-04-20 17:12 21.13373 115.50818 33960 ft 471 kts 267°
2026-04-20 17:12 21.13215 115.43794 33961 ft 472 kts 267°
2026-04-20 17:13 21.13053 115.36770 33951 ft 472 kts 267°
2026-04-20 17:13 21.12888 115.29729 33961 ft 472 kts 267°
2026-04-20 17:14 21.12721 115.22697 33958 ft 472 kts 267°
2026-04-20 17:14 21.12550 115.15672 33960 ft 472 kts 268°
2026-04-20 17:15 21.12377 115.08637 33956 ft 472 kts 268°
2026-04-20 17:15 21.12201 115.01630 33942 ft 473 kts 268°
2026-04-20 17:16 21.12022 114.94595 33950 ft 473 kts 268°
2026-04-20 17:16 21.11839 114.87557 33941 ft 473 kts 268°
2026-04-20 17:17 21.11654 114.80509 33939 ft 473 kts 268°
2026-04-20 17:17 21.11465 114.73457 33940 ft 473 kts 268°
2026-04-20 17:18 21.11274 114.66405 33936 ft 474 kts 268°
2026-04-20 17:18 21.11079 114.59350 33935 ft 474 kts 268°
2026-04-20 17:19 21.10881 114.52289 33940 ft 474 kts 268°
2026-04-20 17:19 21.10681 114.45257 33935 ft 475 kts 268°
2026-04-20 17:20 21.10478 114.38181 33937 ft 475 kts 268°
2026-04-20 17:20 21.10270 114.31093 33934 ft 476 kts 268°
2026-04-20 17:21 21.10060 114.24010 33929 ft 476 kts 269°
2026-04-20 17:21 21.09847 114.16914 33933 ft 476 kts 269°
2026-04-20 17:22 21.09630 114.09821 33934 ft 477 kts 269°
2026-04-20 17:22 21.09412 114.02759 33933 ft 477 kts 269°
2026-04-20 17:23 21.09189 113.95646 33932 ft 478 kts 269°
2026-04-20 17:23 21.08963 113.88524 33926 ft 478 kts 270°
2026-04-20 17:24 21.08735 113.81413 33930 ft 478 kts 270°
2026-04-20 17:24 21.08493 113.74334 33925 ft 478 kts 270°
2026-04-20 17:25 21.08196 113.67216 33928 ft 478 kts 270°
2026-04-20 17:25 21.07888 113.60093 33924 ft 479 kts 270°
2026-04-20 17:26 21.07636 113.54169 33926 ft 479 kts 270°
2026-04-20 17:26 21.07335 113.47042 33926 ft 479 kts 270°
2026-04-20 17:27 21.06982 113.38758 33925 ft 479 kts 270°
2026-04-20 17:27 21.06676 113.31630 33921 ft 479 kts 270°
2026-04-20 17:28 21.06418 113.25700 33920 ft 479 kts 270°
2026-04-20 17:28 21.06105 113.18566 33922 ft 479 kts 270°
2026-04-20 17:29 21.05790 113.11442 33920 ft 479 kts 270°
2026-04-20 17:29 21.05472 113.04328 33923 ft 478 kts 270°
2026-04-20 17:30 21.05151 112.97213 33919 ft 478 kts 270°
2026-04-20 17:30 21.04828 112.90112 33918 ft 478 kts 270°
2026-04-20 17:31 21.04501 112.82994 33916 ft 477 kts 270°
2026-04-20 17:31 21.04173 112.75914 34032 ft 476 kts 270°
2026-04-20 17:32 21.03844 112.68866 34009 ft 476 kts 270°
2026-04-20 17:32 21.03509 112.61770 34010 ft 476 kts 270°
2026-04-20 17:33 21.03172 112.54686 34013 ft 476 kts 270°
2026-04-20 17:33 21.02832 112.47610 34008 ft 476 kts 270°
2026-04-20 17:34 21.02490 112.40543 34013 ft 475 kts 270°
2026-04-20 17:34 21.02146 112.33483 34013 ft 475 kts 270°
2026-04-20 17:35 21.01797 112.26415 34015 ft 475 kts 270°
2026-04-20 17:35 21.01450 112.19410 34008 ft 474 kts 270°
2026-04-20 17:36 21.01096 112.12359 34008 ft 474 kts 270°
2026-04-20 17:36 21.00741 112.05309 34008 ft 474 kts 270°
2026-04-20 17:37 21.00382 111.98265 34011 ft 473 kts 270°
2026-04-20 17:37 21.00022 111.91237 34008 ft 473 kts 270°
2026-04-20 17:38 20.99659 111.84218 34008 ft 472 kts 269°
2026-04-20 17:38 20.99292 111.77188 34003 ft 472 kts 269°
2026-04-20 17:39 20.98924 111.70178 34005 ft 472 kts 269°
2026-04-20 17:39 20.98555 111.63224 34170 ft 468 kts 269°
2026-04-20 17:39 20.98370 111.59752 34419 ft 466 kts 269°
2026-04-20 17:40 20.98185 111.56301 34636 ft 464 kts 269°
2026-04-20 17:40 20.98000 111.52854 34807 ft 464 kts 269°
2026-04-20 17:40 20.97815 111.49408 34960 ft 463 kts 269°
2026-04-20 17:40 20.97629 111.45975 35104 ft 463 kts 269°
2026-04-20 17:41 20.97443 111.42535 35246 ft 463 kts 269°
2026-04-20 17:41 20.97256 111.39092 35385 ft 462 kts 269°
2026-04-20 17:41 20.97068 111.35655 35518 ft 462 kts 269°
2026-04-20 17:41 20.96879 111.32226 35642 ft 462 kts 269°
2026-04-20 17:42 20.96690 111.28788 35769 ft 462 kts 268°
2026-04-20 17:42 20.96500 111.25355 35876 ft 462 kts 268°
2026-04-20 17:42 20.96310 111.21919 35894 ft 463 kts 268°
2026-04-20 17:43 20.95929 111.15096 35896 ft 462 kts 268°
2026-04-20 17:43 20.95603 111.08226 35894 ft 462 kts 272°
2026-04-20 17:44 20.96446 111.01451 35893 ft 459 kts 284°
2026-04-20 17:44 20.98031 110.94823 35891 ft 460 kts 285°
2026-04-20 17:45 20.99731 110.88223 35893 ft 460 kts 286°
2026-04-20 17:45 21.01423 110.81622 35888 ft 459 kts 285°
2026-04-20 17:46 21.03092 110.75021 35888 ft 459 kts 285°
2026-04-20 17:46 21.04740 110.68455 35888 ft 459 kts 285°
2026-04-20 17:47 21.06395 110.61845 35886 ft 459 kts 285°
2026-04-20 17:47 21.08047 110.55237 35885 ft 459 kts 285°
2026-04-20 17:48 21.09697 110.48631 35882 ft 459 kts 285°
2026-04-20 17:48 21.11347 110.42008 35880 ft 459 kts 285°
2026-04-20 17:49 21.13027 110.35404 35875 ft 459 kts 288°
2026-04-20 17:49 21.15608 110.29163 35878 ft 459 kts 297°
2026-04-20 17:50 21.18588 110.23153 35877 ft 459 kts 298°
2026-04-20 17:50 21.21652 110.17133 35873 ft 460 kts 298°
2026-04-20 17:51 21.24711 110.11102 35872 ft 460 kts 298°
2026-04-20 17:51 21.27757 110.05056 35874 ft 461 kts 298°
2026-04-20 17:52 21.30793 109.99009 35873 ft 461 kts 298°
2026-04-20 17:52 21.33832 109.92948 35872 ft 461 kts 298°
2026-04-20 17:53 21.36851 109.86922 35870 ft 461 kts 298°
2026-04-20 17:53 21.39904 109.80823 35866 ft 461 kts 298°
2026-04-20 17:54 21.42916 109.74798 35866 ft 461 kts 298°
2026-04-20 17:54 21.45945 109.68734 35867 ft 460 kts 298°
2026-04-20 17:55 21.48970 109.62670 35869 ft 460 kts 298°
2026-04-20 17:55 21.51989 109.56609 35865 ft 460 kts 298°
2026-04-20 17:56 21.54987 109.50586 35866 ft 459 kts 298°
2026-04-20 17:56 21.58043 109.44563 35865 ft 459 kts 302°
2026-04-20 17:57 21.61865 109.39074 35863 ft 459 kts 308°
2026-04-20 17:57 21.65952 109.33796 35862 ft 459 kts 309°
2026-04-20 17:58 21.70080 109.28553 35864 ft 459 kts 309°
2026-04-20 17:58 21.74189 109.23316 35863 ft 458 kts 309°
2026-04-20 17:59 21.78286 109.18067 35864 ft 458 kts 309°
2026-04-20 17:59 21.82386 109.12804 35863 ft 458 kts 309°
2026-04-20 18:00 21.86476 109.07554 35861 ft 458 kts 309°
2026-04-20 18:00 21.90557 109.02343 35865 ft 457 kts 309°
2026-04-20 18:01 21.94659 108.97102 35865 ft 457 kts 309°
2026-04-20 18:01 21.98766 108.91848 35864 ft 457 kts 309°
2026-04-20 18:02 22.02859 108.86606 35864 ft 457 kts 309°
2026-04-20 18:02 22.06950 108.81363 35863 ft 457 kts 309°
2026-04-20 18:03 22.11009 108.76153 35864 ft 457 kts 309°
2026-04-20 18:03 22.15107 108.70912 35860 ft 457 kts 309°
2026-04-20 18:04 22.19208 108.65667 35862 ft 457 kts 309°
2026-04-20 18:04 22.23313 108.60411 35863 ft 457 kts 309°
2026-04-20 18:05 22.29461 108.52530 35862 ft 457 kts 309°
2026-04-20 18:05 22.33561 108.47268 35863 ft 458 kts 309°
2026-04-20 18:06 22.37637 108.42033 35866 ft 458 kts 309°
2026-04-20 18:06 22.41734 108.36764 35869 ft 458 kts 309°
2026-04-20 18:07 22.45837 108.31483 35874 ft 458 kts 308°
2026-04-20 18:07 22.49941 108.26195 35879 ft 459 kts 308°
2026-04-20 18:08 22.53891 108.20783 35883 ft 458 kts 301°
2026-04-20 18:08 22.56512 108.14552 35879 ft 456 kts 285°
2026-04-20 18:09 22.57184 108.07735 35884 ft 459 kts 267°
2026-04-20 18:09 22.56234 108.00882 35854 ft 462 kts 261°
2026-04-20 18:10 22.54988 107.94088 35860 ft 463 kts 261°
2026-04-20 18:10 22.53724 107.87263 35858 ft 463 kts 261°
2026-04-20 18:11 22.52491 107.80426 35855 ft 463 kts 261°
2026-04-20 18:11 22.51273 107.73589 35857 ft 463 kts 261°
2026-04-20 18:12 22.50056 107.66749 35854 ft 463 kts 261°
2026-04-20 18:12 22.49042 107.61073 35855 ft 463 kts 261°
2026-04-20 18:13 22.47617 107.53121 35858 ft 463 kts 261°
2026-04-20 18:13 22.46587 107.47392 35856 ft 463 kts 261°
2026-04-20 18:14 22.45362 107.40590 35853 ft 464 kts 261°
2026-04-20 18:14 22.44127 107.33751 35853 ft 464 kts 261°
2026-04-20 18:15 22.42888 107.26899 35854 ft 464 kts 261°
2026-04-20 18:15 22.41654 107.20046 35857 ft 464 kts 261°
2026-04-20 18:16 22.40426 107.13194 35854 ft 464 kts 261°
2026-04-20 18:16 22.39194 107.06343 35857 ft 464 kts 261°
2026-04-20 18:17 22.37959 106.99493 35856 ft 465 kts 261°
2026-04-20 18:17 22.36674 106.92652 35854 ft 466 kts 258°
2026-04-20 18:18 22.34191 106.86169 35856 ft 472 kts 241°
2026-04-20 18:18 22.30021 106.80695 35855 ft 479 kts 229°
2026-04-20 18:19 22.25278 106.75625 35855 ft 481 kts 227°
2026-04-20 18:19 22.20468 106.70609 35857 ft 481 kts 228°
2026-04-20 18:20 22.15477 106.65764 35862 ft 483 kts 223°
2026-04-20 18:20 22.10270 106.61166 35862 ft 484 kts 223°
2026-04-20 18:21 22.05018 106.56597 35860 ft 485 kts 223°
2026-04-20 18:21 21.99762 106.52031 35862 ft 485 kts 223°
2026-04-20 18:22 21.94506 106.47461 35865 ft 485 kts 223°
2026-04-20 18:22 21.89304 106.42890 35863 ft 485 kts 223°
2026-04-20 18:23 21.84078 106.38286 35865 ft 485 kts 223°
2026-04-20 18:23 21.78848 106.33692 35863 ft 486 kts 223°
2026-04-20 18:24 21.73607 106.29097 35859 ft 486 kts 223°
2026-04-20 18:24 21.68360 106.24503 35861 ft 486 kts 223°
2026-04-20 18:25 21.63110 106.19911 35856 ft 486 kts 223°
2026-04-20 18:25 21.57858 106.15322 35849 ft 486 kts 222°
2026-04-20 18:26 21.52606 106.10737 35848 ft 486 kts 222°
2026-04-20 18:26 21.47357 106.06159 35846 ft 486 kts 222°
2026-04-20 18:27 21.42104 106.01582 35845 ft 486 kts 222°
2026-04-20 18:27 21.36844 105.97004 35848 ft 486 kts 222°
2026-04-20 18:28 21.31618 105.92459 35849 ft 486 kts 222°
2026-04-20 18:28 21.26585 105.87647 35847 ft 482 kts 232°
2026-04-20 18:29 21.22961 105.81708 35857 ft 474 kts 249°
2026-04-20 18:29 21.21310 105.74945 35855 ft 468 kts 267°
2026-04-20 18:30 21.21111 105.68013 35845 ft 468 kts 271°
2026-04-20 18:30 21.21130 105.61036 35854 ft 468 kts 271°
2026-04-20 18:31 21.21139 105.54052 35833 ft 468 kts 271°
2026-04-20 18:31 21.21111 105.47074 35820 ft 469 kts 271°
2026-04-20 18:32 21.21063 105.40089 35825 ft 469 kts 271°
2026-04-20 18:32 21.21012 105.33101 35825 ft 469 kts 271°
2026-04-20 18:33 21.20958 105.26111 35827 ft 469 kts 271°
2026-04-20 18:33 21.20902 105.19114 35814 ft 469 kts 271°
2026-04-20 18:34 21.20844 105.12120 35827 ft 469 kts 271°
2026-04-20 18:34 21.20837 105.05173 35821 ft 469 kts 272°
2026-04-20 18:35 21.20923 104.98179 35832 ft 469 kts 272°
2026-04-20 18:35 21.21005 104.91190 35831 ft 469 kts 272°
2026-04-20 18:36 21.21065 104.84197 35838 ft 469 kts 272°
2026-04-20 18:36 21.21118 104.77206 35862 ft 469 kts 272°
2026-04-20 18:37 21.21170 104.70220 35863 ft 468 kts 272°
2026-04-20 18:37 21.21217 104.63242 35855 ft 467 kts 272°
2026-04-20 18:38 21.21262 104.56275 35870 ft 467 kts 272°
2026-04-20 18:38 21.21303 104.49368 35877 ft 466 kts 272°
2026-04-20 18:39 21.21339 104.42406 35859 ft 466 kts 271°
2026-04-20 18:39 21.21374 104.35466 35873 ft 466 kts 271°
2026-04-20 18:40 21.21409 104.28532 35870 ft 465 kts 271°
2026-04-20 18:40 21.21439 104.21604 35853 ft 464 kts 271°
2026-04-20 18:41 21.21465 104.14680 35851 ft 464 kts 271°
2026-04-20 18:41 21.21489 104.07815 35865 ft 463 kts 271°
2026-04-20 18:42 21.21192 104.00917 35844 ft 464 kts 266°
2026-04-20 18:42 21.20541 103.94039 35855 ft 464 kts 266°
2026-04-20 18:43 21.19832 103.87159 35854 ft 464 kts 265°
2026-04-20 18:43 21.19118 103.80285 35856 ft 464 kts 266°
2026-04-20 18:44 21.18415 103.73461 35844 ft 463 kts 266°
2026-04-20 18:44 21.17710 103.66593 35851 ft 463 kts 266°
2026-04-20 18:45 21.17001 103.59726 35851 ft 463 kts 266°
2026-04-20 18:45 21.16291 103.52870 35860 ft 462 kts 266°
2026-04-20 18:46 21.15578 103.46023 35851 ft 462 kts 266°
2026-04-20 18:46 21.14868 103.39235 35859 ft 461 kts 266°
2026-04-20 18:47 21.14153 103.32404 35855 ft 461 kts 266°
2026-04-20 18:47 21.13437 103.25575 35860 ft 461 kts 266°
2026-04-20 18:48 21.12712 103.18748 35846 ft 461 kts 266°
2026-04-20 18:48 21.11988 103.11924 35854 ft 461 kts 266°
2026-04-20 18:49 21.11263 103.05113 35847 ft 460 kts 266°
2026-04-20 18:49 21.10536 102.98316 35838 ft 459 kts 266°
2026-04-20 18:50 21.09811 102.91519 35838 ft 459 kts 266°
2026-04-20 18:50 21.09078 102.84729 35844 ft 458 kts 266°
2026-04-20 18:51 21.08342 102.77947 35841 ft 458 kts 266°
2026-04-20 18:51 21.07610 102.71215 35845 ft 458 kts 266°
2026-04-20 18:52 21.06872 102.64451 35840 ft 457 kts 266°
2026-04-20 18:52 21.06134 102.57698 35828 ft 456 kts 266°
2026-04-20 18:53 21.05389 102.50942 35840 ft 456 kts 266°
2026-04-20 18:53 21.04648 102.44196 35841 ft 456 kts 265°
2026-04-20 18:54 21.03906 102.37461 35839 ft 456 kts 265°
2026-04-20 18:54 21.03157 102.30715 35837 ft 455 kts 265°
2026-04-20 18:55 21.02405 102.23977 35843 ft 456 kts 265°
2026-04-20 18:55 21.01657 102.17290 35843 ft 456 kts 265°
2026-04-20 18:56 21.00902 102.10568 35851 ft 455 kts 265°
2026-04-20 18:56 21.00145 102.03851 35837 ft 455 kts 265°
2026-04-20 18:57 20.99386 101.97136 35847 ft 454 kts 265°
2026-04-20 18:57 20.98625 101.90431 35851 ft 454 kts 265°
2026-04-20 18:58 20.97991 101.84849 35851 ft 453 kts 265°
2026-04-20 18:58 20.97104 101.77078 35845 ft 452 kts 265°
2026-04-20 18:59 20.96461 101.71471 35850 ft 452 kts 265°
2026-04-20 18:59 20.95697 101.64833 35844 ft 452 kts 265°
2026-04-20 19:00 20.94928 101.58162 35856 ft 452 kts 265°
2026-04-20 19:00 20.94156 101.51492 35847 ft 452 kts 265°
2026-04-20 19:01 20.93382 101.44830 35853 ft 451 kts 265°
2026-04-20 19:01 20.92605 101.38164 35848 ft 451 kts 265°
2026-04-20 19:02 20.91825 101.31499 35857 ft 451 kts 265°
2026-04-20 19:02 20.91048 101.24888 35856 ft 450 kts 265°
2026-04-20 19:03 20.90265 101.18244 35859 ft 451 kts 265°
2026-04-20 19:03 20.89474 101.11545 35858 ft 451 kts 265°
2026-04-20 19:04 20.88687 101.04898 35866 ft 451 kts 265°
2026-04-20 19:04 20.87901 100.98298 35866 ft 450 kts 265°
2026-04-20 19:05 20.87106 100.91648 35862 ft 450 kts 265°
2026-04-20 19:05 20.86311 100.85004 35848 ft 450 kts 265°
2026-04-20 19:06 20.85511 100.78366 35858 ft 450 kts 264°
2026-04-20 19:06 20.84717 100.71765 35856 ft 450 kts 265°
2026-04-20 19:07 20.83918 100.65137 35858 ft 449 kts 264°
2026-04-20 19:07 20.83113 100.58508 35854 ft 449 kts 264°
2026-04-20 19:08 20.82121 100.48555 35851 ft 447 kts 272°
2026-04-20 19:09 20.82956 100.42002 35852 ft 445 kts 284°
2026-04-20 19:09 20.84601 100.35610 35853 ft 446 kts 286°
2026-04-20 19:10 20.86368 100.29250 35857 ft 446 kts 286°
2026-04-20 19:10 20.88125 100.22891 35861 ft 446 kts 285°
2026-04-20 19:11 20.89852 100.16548 35871 ft 447 kts 285°
2026-04-20 19:11 20.91572 100.10178 35871 ft 445 kts 285°
2026-04-20 19:12 20.93289 100.03811 35872 ft 445 kts 285°
2026-04-20 19:12 20.95002 99.97448 35877 ft 445 kts 285°
2026-04-20 19:13 20.96712 99.91086 35874 ft 445 kts 285°
2026-04-20 19:13 20.98420 99.84726 35880 ft 445 kts 285°
2026-04-20 19:14 21.00126 99.78358 35894 ft 445 kts 285°
2026-04-20 19:14 21.01829 99.71998 35890 ft 444 kts 285°
2026-04-20 19:15 21.03530 99.65639 35892 ft 444 kts 285°
2026-04-20 19:15 21.05226 99.59281 35903 ft 444 kts 285°
2026-04-20 19:16 21.06909 99.52958 35902 ft 444 kts 285°
2026-04-20 19:16 21.08600 99.46597 35898 ft 444 kts 285°
2026-04-20 19:17 21.10289 99.40237 35902 ft 444 kts 285°
2026-04-20 19:17 21.11977 99.33865 35894 ft 444 kts 285°
2026-04-20 19:18 21.13658 99.27511 35890 ft 443 kts 284°
2026-04-20 19:18 21.15336 99.21162 35883 ft 443 kts 284°
2026-04-20 19:19 21.17003 99.14839 35878 ft 444 kts 285°
2026-04-20 19:19 21.18679 99.08473 35876 ft 443 kts 285°
2026-04-20 19:20 21.20350 99.02115 35866 ft 442 kts 284°
2026-04-20 19:20 21.22017 98.95765 35855 ft 443 kts 284°
2026-04-20 19:21 21.23684 98.89400 35865 ft 443 kts 284°
2026-04-20 19:21 21.25347 98.83048 35849 ft 443 kts 284°
2026-04-20 19:22 21.27008 98.76687 35842 ft 442 kts 284°
2026-04-20 19:22 21.28638 98.70430 35842 ft 443 kts 284°
2026-04-20 19:23 21.30291 98.64079 35839 ft 442 kts 284°
2026-04-20 19:23 21.31943 98.57724 35842 ft 442 kts 284°
2026-04-20 19:24 21.33589 98.51382 35836 ft 441 kts 284°
2026-04-20 19:24 21.35232 98.45040 35836 ft 441 kts 284°
2026-04-20 19:25 21.36870 98.38697 35831 ft 441 kts 284°
2026-04-20 19:25 21.38507 98.32352 35848 ft 441 kts 284°
2026-04-20 19:26 21.40140 98.26016 35849 ft 441 kts 284°
2026-04-20 19:26 21.41773 98.19671 35842 ft 441 kts 284°
2026-04-20 19:27 21.43398 98.13339 35853 ft 440 kts 284°
2026-04-20 19:27 21.45014 98.07035 35856 ft 440 kts 284°
2026-04-20 19:28 21.46638 98.00691 35871 ft 440 kts 284°
2026-04-20 19:28 21.48256 97.94360 35864 ft 440 kts 284°
2026-04-20 19:29 21.49871 97.88029 35865 ft 440 kts 284°
2026-04-20 19:29 21.51484 97.81693 35860 ft 440 kts 284°
2026-04-20 19:30 21.53096 97.75352 35866 ft 440 kts 284°
2026-04-20 19:30 21.54703 97.69019 35867 ft 440 kts 284°
2026-04-20 19:31 21.56300 97.62715 35861 ft 440 kts 284°
2026-04-20 19:31 21.57905 97.56367 35859 ft 440 kts 284°
2026-04-20 19:32 21.59507 97.50024 35852 ft 440 kts 284°
2026-04-20 19:32 21.61106 97.43676 35839 ft 440 kts 284°
2026-04-20 19:33 21.62709 97.37310 35843 ft 441 kts 284°
2026-04-20 19:33 21.64305 97.30957 35837 ft 440 kts 283°
2026-04-20 19:34 21.65895 97.24610 35835 ft 440 kts 283°
2026-04-20 19:34 21.67476 97.18295 35828 ft 440 kts 283°
2026-04-20 19:35 21.69064 97.11938 35823 ft 440 kts 283°
2026-04-20 19:35 21.70647 97.05592 35820 ft 439 kts 283°
2026-04-20 19:36 21.72229 96.99238 35815 ft 439 kts 283°
2026-04-20 19:36 21.73806 96.92892 35813 ft 439 kts 283°
2026-04-20 19:37 21.75378 96.86557 35809 ft 438 kts 283°
2026-04-20 19:37 21.76947 96.80219 35813 ft 439 kts 283°
2026-04-20 19:38 21.78504 96.73928 35806 ft 437 kts 283°
2026-04-20 19:38 21.80064 96.67609 35807 ft 437 kts 283°
2026-04-20 19:39 21.81623 96.61282 35797 ft 437 kts 283°
2026-04-20 19:39 21.83175 96.54968 35792 ft 436 kts 283°
2026-04-20 19:40 21.84725 96.48651 35787 ft 436 kts 283°
2026-04-20 19:40 21.86275 96.42335 35784 ft 436 kts 283°
2026-04-20 19:41 21.87819 96.36026 35773 ft 436 kts 283°
2026-04-20 19:41 21.89358 96.29716 35762 ft 436 kts 283°
2026-04-20 19:42 21.90898 96.23398 35758 ft 436 kts 283°
2026-04-20 19:42 21.92434 96.17085 35749 ft 436 kts 283°
2026-04-20 19:43 21.93593 96.10703 35739 ft 434 kts 276°
2026-04-20 19:43 21.94231 96.04232 35733 ft 434 kts 275°
2026-04-20 19:44 21.94785 95.97745 35726 ft 434 kts 275°
2026-04-20 19:44 21.95327 95.91311 35724 ft 434 kts 275°
2026-04-20 19:45 21.95881 95.84830 35719 ft 434 kts 275°
2026-04-20 19:45 21.96437 95.78357 35716 ft 434 kts 275°
2026-04-20 19:46 21.96992 95.71888 35713 ft 433 kts 275°
2026-04-20 19:46 21.97544 95.65419 35714 ft 433 kts 275°
2026-04-20 19:47 21.97999 95.60050 35715 ft 433 kts 275°
2026-04-20 19:47 21.98545 95.53593 35714 ft 433 kts 275°
2026-04-20 19:48 21.99088 95.47133 35714 ft 432 kts 275°
2026-04-20 19:48 21.99628 95.40684 35711 ft 432 kts 275°
2026-04-20 19:49 22.00166 95.34230 35717 ft 432 kts 274°
2026-04-20 19:49 22.00700 95.27788 35713 ft 431 kts 274°
2026-04-20 19:50 22.01231 95.21347 35717 ft 431 kts 274°
2026-04-20 19:50 22.01760 95.14905 35717 ft 431 kts 274°
2026-04-20 19:51 22.02285 95.08477 35715 ft 431 kts 274°
2026-04-20 19:51 22.02808 95.02040 35715 ft 431 kts 274°
2026-04-20 19:52 22.03325 94.95651 35714 ft 431 kts 274°
2026-04-20 19:52 22.03844 94.89212 35719 ft 431 kts 274°
2026-04-20 19:53 22.04360 94.82771 35721 ft 431 kts 274°
2026-04-20 19:53 22.04875 94.76314 35725 ft 432 kts 274°
2026-04-20 19:54 22.05387 94.69862 35729 ft 432 kts 274°
2026-04-20 19:54 22.05896 94.63399 35735 ft 432 kts 274°
2026-04-20 19:55 22.06401 94.56983 35742 ft 433 kts 274°
2026-04-20 19:55 22.06907 94.50511 35746 ft 433 kts 274°
2026-04-20 19:56 22.07409 94.44040 35748 ft 432 kts 274°
2026-04-20 19:56 22.07911 94.37558 35754 ft 434 kts 274°
2026-04-20 19:57 22.08410 94.31076 35755 ft 434 kts 274°
2026-04-20 19:57 22.08906 94.24584 35758 ft 434 kts 274°
2026-04-20 19:58 22.09401 94.18090 35762 ft 434 kts 274°
2026-04-20 19:58 22.09890 94.11637 35768 ft 434 kts 274°
2026-04-20 19:59 22.10378 94.05147 35771 ft 434 kts 274°
2026-04-20 19:59 22.10866 93.98645 35779 ft 434 kts 274°
2026-04-20 20:00 22.11350 93.92150 35795 ft 435 kts 274°
2026-04-20 20:00 22.11832 93.85653 35811 ft 435 kts 274°
2026-04-20 20:01 22.12310 93.79146 35833 ft 435 kts 274°
2026-04-20 20:01 22.12790 93.72649 35846 ft 434 kts 273°
2026-04-20 20:02 22.13264 93.66154 35866 ft 434 kts 273°
2026-04-20 20:02 22.13734 93.59666 35886 ft 434 kts 274°
2026-04-20 20:03 22.14200 93.53185 35899 ft 433 kts 273°
2026-04-20 20:03 22.14663 93.46748 35909 ft 433 kts 273°
2026-04-20 20:04 22.15125 93.40234 35896 ft 432 kts 273°
2026-04-20 20:04 22.15585 93.33810 35911 ft 432 kts 273°
2026-04-20 20:05 22.16042 93.27349 35906 ft 432 kts 273°
2026-04-20 20:05 22.16495 93.20876 35902 ft 433 kts 273°
2026-04-20 20:06 22.16944 93.14404 35887 ft 432 kts 273°
2026-04-20 20:06 22.17391 93.07934 35877 ft 433 kts 273°
2026-04-20 20:07 22.17839 93.01441 35870 ft 434 kts 273°
2026-04-20 20:07 22.18286 92.94935 35859 ft 434 kts 273°
2026-04-20 20:08 22.18726 92.88473 35856 ft 435 kts 273°
2026-04-20 20:08 22.19167 92.81960 35841 ft 435 kts 273°
2026-04-20 20:09 22.19607 92.75443 35840 ft 435 kts 273°
2026-04-20 20:09 22.20043 92.68921 35834 ft 436 kts 273°
2026-04-20 20:10 22.20476 92.62400 35825 ft 435 kts 272°
2026-04-20 20:10 22.20877 92.55877 35819 ft 435 kts 272°
2026-04-20 20:11 22.21267 92.49355 35811 ft 435 kts 272°
2026-04-20 20:11 22.21658 92.42835 35806 ft 435 kts 272°
2026-04-20 20:12 22.22048 92.36349 35808 ft 436 kts 272°
2026-04-20 20:12 22.22441 92.29776 35803 ft 436 kts 272°
2026-04-20 20:13 22.23087 92.20025 35796 ft 436 kts 273°
2026-04-20 20:13 22.23576 92.13498 35793 ft 436 kts 273°
2026-04-20 20:14 22.24059 92.06959 35787 ft 437 kts 272°
2026-04-20 20:14 22.24530 92.00418 35788 ft 437 kts 272°
2026-04-20 20:15 22.24994 91.93870 35781 ft 437 kts 272°
2026-04-20 20:15 22.25456 91.87323 35781 ft 437 kts 272°
2026-04-20 20:16 22.25924 91.80824 35783 ft 438 kts 273°
2026-04-20 20:16 22.26651 91.74287 35779 ft 439 kts 275°
2026-04-20 20:17 22.27477 91.67758 35777 ft 439 kts 275°
2026-04-20 20:17 22.28268 91.61225 35776 ft 439 kts 275°
2026-04-20 20:18 22.29026 91.54694 35773 ft 438 kts 274°
2026-04-20 20:18 22.29772 91.48157 35774 ft 438 kts 274°
2026-04-20 20:19 22.30510 91.41665 35774 ft 438 kts 274°
2026-04-20 20:19 22.31260 91.35136 35772 ft 438 kts 275°
2026-04-20 20:20 22.32071 91.28610 35771 ft 438 kts 275°
2026-04-20 20:20 22.32894 91.22085 35770 ft 438 kts 275°
2026-04-20 20:21 22.33705 91.15566 35768 ft 438 kts 275°
2026-04-20 20:21 22.34508 91.09047 35766 ft 438 kts 274°
2026-04-20 20:22 22.35305 91.02530 35766 ft 438 kts 274°
2026-04-20 20:22 22.36096 90.96054 35765 ft 438 kts 274°
2026-04-20 20:23 22.36889 90.89529 35763 ft 437 kts 274°
2026-04-20 20:23 22.37680 90.83012 35761 ft 437 kts 274°
2026-04-20 20:24 22.38468 90.76493 35756 ft 437 kts 274°
2026-04-20 20:24 22.39252 90.69977 35755 ft 437 kts 274°
2026-04-20 20:25 22.40030 90.63501 35753 ft 437 kts 274°
2026-04-20 20:25 22.40808 90.56995 35749 ft 437 kts 274°
2026-04-20 20:26 22.41584 90.50479 35749 ft 436 kts 274°
2026-04-20 20:26 22.42358 90.43971 35744 ft 436 kts 274°
2026-04-20 20:27 22.43127 90.37466 35746 ft 436 kts 274°
2026-04-20 20:27 22.43894 90.30967 35742 ft 436 kts 274°
2026-04-20 20:28 22.44659 90.24457 35736 ft 436 kts 274°
2026-04-20 20:28 22.45416 90.17999 35736 ft 436 kts 274°
2026-04-20 20:29 22.46174 90.11500 35735 ft 436 kts 274°
2026-04-20 20:29 22.46931 90.04993 35734 ft 436 kts 274°
2026-04-20 20:30 22.47685 89.98491 35726 ft 436 kts 274°
2026-04-20 20:30 22.48309 89.93082 35726 ft 436 kts 274°
2026-04-20 20:31 22.49058 89.86582 35726 ft 436 kts 274°
2026-04-20 20:31 22.49804 89.80073 35719 ft 436 kts 274°
2026-04-20 20:32 22.50548 89.73565 35717 ft 436 kts 274°
2026-04-20 20:32 22.51284 89.67101 35709 ft 436 kts 274°
2026-04-20 20:33 22.52024 89.60585 35718 ft 436 kts 273°
2026-04-20 20:33 22.52759 89.54083 35712 ft 436 kts 273°
2026-04-20 20:34 22.53493 89.47564 35710 ft 436 kts 273°
2026-04-20 20:34 22.54225 89.41046 35713 ft 436 kts 273°
2026-04-20 20:35 22.54953 89.34532 35704 ft 436 kts 273°
2026-04-20 20:35 22.55675 89.28054 35701 ft 436 kts 273°
2026-04-20 20:36 22.56399 89.21532 35698 ft 436 kts 273°
2026-04-20 20:36 22.57119 89.15019 35702 ft 436 kts 273°
2026-04-20 20:37 22.57838 89.08500 35696 ft 436 kts 273°
2026-04-20 20:37 22.58549 89.02015 35696 ft 436 kts 273°
2026-04-20 20:38 22.59264 88.95481 35693 ft 436 kts 273°
2026-04-20 20:38 22.60111 88.88964 35692 ft 438 kts 276°
2026-04-20 20:39 22.61269 88.82475 35693 ft 439 kts 277°
2026-04-20 20:39 22.62437 88.75987 35690 ft 439 kts 276°
2026-04-20 20:40 22.63550 88.69501 35689 ft 439 kts 276°
2026-04-20 20:40 22.64628 88.63043 35692 ft 439 kts 276°
2026-04-20 20:41 22.65714 88.56500 35691 ft 439 kts 276°
2026-04-20 20:41 22.66794 88.49991 35693 ft 439 kts 276°
2026-04-20 20:42 22.68563 88.43668 35693 ft 447 kts 289°
2026-04-20 20:42 22.71619 88.37744 35691 ft 453 kts 295°
2026-04-20 20:43 22.74960 88.31937 35692 ft 454 kts 296°
2026-04-20 20:43 22.78323 88.26155 35691 ft 453 kts 296°
2026-04-20 20:44 22.81664 88.20353 35691 ft 453 kts 296°
2026-04-20 20:44 22.84981 88.14554 35694 ft 452 kts 295°
2026-04-20 20:45 22.88292 88.08749 35687 ft 452 kts 295°
2026-04-20 20:45 22.91592 88.02958 35703 ft 451 kts 295°
2026-04-20 20:46 22.94868 87.97205 35700 ft 451 kts 295°
2026-04-20 20:46 22.98160 87.91417 35704 ft 450 kts 295°
2026-04-20 20:47 23.01449 87.85629 35702 ft 450 kts 295°
2026-04-20 20:47 23.04729 87.79848 35707 ft 449 kts 295°
2026-04-20 20:48 23.08007 87.74065 35702 ft 449 kts 295°
2026-04-20 20:48 23.11280 87.68285 35705 ft 449 kts 295°
2026-04-20 20:49 23.14550 87.62504 35712 ft 448 kts 295°
2026-04-20 20:49 23.17813 87.56728 35717 ft 448 kts 294°
2026-04-20 20:50 23.21070 87.50957 35717 ft 448 kts 294°
2026-04-20 20:50 23.24302 87.45223 35721 ft 447 kts 294°
2026-04-20 20:51 23.27554 87.39446 35722 ft 447 kts 294°
2026-04-20 20:51 23.30800 87.33674 35723 ft 447 kts 294°
2026-04-20 20:52 23.34043 87.27901 35725 ft 447 kts 294°
2026-04-20 20:52 23.37285 87.22125 35728 ft 447 kts 294°
2026-04-20 20:53 23.40524 87.16346 35730 ft 447 kts 294°
2026-04-20 20:53 23.43739 87.10603 35733 ft 446 kts 294°
2026-04-20 20:54 23.46970 87.04824 35737 ft 446 kts 294°
2026-04-20 20:54 23.50202 86.99052 35739 ft 447 kts 294°
2026-04-20 20:55 23.53436 86.93273 35744 ft 446 kts 294°
2026-04-20 20:55 23.56667 86.87487 35743 ft 446 kts 294°
2026-04-20 20:56 23.59890 86.81714 35745 ft 446 kts 294°
2026-04-20 20:56 23.63117 86.75929 35751 ft 447 kts 294°
2026-04-20 20:57 23.66340 86.70143 35753 ft 446 kts 294°
2026-04-20 20:57 23.69562 86.64347 35754 ft 446 kts 294°
2026-04-20 20:58 23.72762 86.58588 35754 ft 446 kts 294°
2026-04-20 20:58 23.75979 86.52791 35758 ft 446 kts 294°
2026-04-20 20:59 23.79201 86.46980 35760 ft 446 kts 294°
2026-04-20 20:59 23.82442 86.41189 35766 ft 448 kts 296°
2026-04-20 21:00 23.85983 86.35564 35768 ft 450 kts 298°
2026-04-20 21:00 23.89616 86.29984 35776 ft 450 kts 298°
2026-04-20 21:01 23.93209 86.24379 35774 ft 450 kts 297°
2026-04-20 21:01 23.96769 86.18747 35768 ft 450 kts 297°
2026-04-20 21:02 24.00295 86.13147 35777 ft 449 kts 297°
2026-04-20 21:02 24.03836 86.07513 35776 ft 449 kts 297°
2026-04-20 21:03 24.07371 86.01886 35774 ft 448 kts 297°
2026-04-20 21:03 24.10901 85.96263 35773 ft 448 kts 297°
2026-04-20 21:04 24.14435 85.90628 35776 ft 448 kts 297°
2026-04-20 21:04 24.17959 85.85002 35776 ft 448 kts 297°
2026-04-20 21:05 24.21478 85.79378 35771 ft 447 kts 297°
2026-04-20 21:05 24.24994 85.73750 35772 ft 447 kts 297°
2026-04-20 21:06 24.28485 85.68158 35771 ft 447 kts 297°
2026-04-20 21:06 24.31991 85.62535 35769 ft 447 kts 297°
2026-04-20 21:07 24.35492 85.56914 35763 ft 446 kts 296°
2026-04-20 21:07 24.38991 85.51291 35758 ft 446 kts 296°
2026-04-20 21:08 24.42482 85.45672 35758 ft 445 kts 296°
2026-04-20 21:08 24.45967 85.40059 35754 ft 444 kts 296°
2026-04-20 21:09 24.49445 85.34449 35748 ft 444 kts 296°
2026-04-20 21:09 24.52909 85.28856 35738 ft 443 kts 296°
2026-04-20 21:10 24.56344 85.23302 35731 ft 442 kts 296°
2026-04-20 21:10 24.59791 85.17724 35720 ft 440 kts 296°
2026-04-20 21:11 24.63223 85.12162 35709 ft 439 kts 296°
2026-04-20 21:11 24.66645 85.06610 35700 ft 438 kts 296°
2026-04-20 21:12 24.70061 85.01062 35694 ft 437 kts 296°
2026-04-20 21:12 24.73409 84.95484 35694 ft 432 kts 292°
2026-04-20 21:13 24.75888 84.89553 35693 ft 424 kts 285°
2026-04-20 21:13 24.78019 84.83561 35694 ft 423 kts 284°
2026-04-20 21:14 24.80111 84.77507 35700 ft 422 kts 284°
2026-04-20 21:14 24.82203 84.71464 35708 ft 422 kts 284°
2026-04-20 21:15 24.84306 84.65416 35711 ft 422 kts 284°
2026-04-20 21:15 24.86408 84.59376 35718 ft 422 kts 284°
2026-04-20 21:16 24.88499 84.53364 35721 ft 422 kts 284°
2026-04-20 21:16 24.90596 84.47322 35717 ft 422 kts 284°
2026-04-20 21:17 24.92692 84.41273 35718 ft 422 kts 284°
2026-04-20 21:17 24.94785 84.35224 35718 ft 422 kts 283°
2026-04-20 21:18 24.96868 84.29194 35719 ft 422 kts 283°
2026-04-20 21:18 24.98618 84.24121 35717 ft 422 kts 283°
2026-04-20 21:19 25.00706 84.18060 35715 ft 422 kts 283°
2026-04-20 21:20 25.03816 84.09015 35710 ft 422 kts 283°
2026-04-20 21:20 25.05895 84.02957 35712 ft 422 kts 283°
2026-04-20 21:21 25.07974 83.96889 35712 ft 422 kts 283°
2026-04-20 21:21 25.10049 83.90824 35709 ft 422 kts 283°
2026-04-20 21:22 25.12117 83.84770 35711 ft 422 kts 283°
2026-04-20 21:22 25.14184 83.78710 35709 ft 422 kts 283°
2026-04-20 21:23 25.16249 83.72646 35708 ft 421 kts 283°
2026-04-20 21:23 25.18307 83.66593 35706 ft 421 kts 283°
2026-04-20 21:24 25.20368 83.60524 35708 ft 421 kts 283°
2026-04-20 21:24 25.22408 83.54506 35695 ft 421 kts 283°
2026-04-20 21:25 25.24457 83.48452 35707 ft 421 kts 283°
2026-04-20 21:25 25.26505 83.42389 35699 ft 421 kts 283°
2026-04-20 21:26 25.28550 83.36331 35699 ft 421 kts 283°
2026-04-20 21:26 25.30594 83.30262 35703 ft 421 kts 283°
2026-04-20 21:27 25.32636 83.24192 35701 ft 421 kts 283°
2026-04-20 21:27 25.34673 83.18125 35696 ft 421 kts 283°
2026-04-20 21:28 25.36703 83.12072 35697 ft 421 kts 283°
2026-04-20 21:28 25.38737 83.05997 35695 ft 422 kts 283°
2026-04-20 21:29 25.40772 82.99911 35692 ft 422 kts 283°
2026-04-20 21:29 25.42805 82.93817 35693 ft 422 kts 283°
2026-04-20 21:30 25.44927 82.87735 35693 ft 427 kts 287°
2026-04-20 21:30 25.48068 82.82031 35693 ft 439 kts 296°
2026-04-20 21:31 25.51710 82.76559 35692 ft 442 kts 298°
2026-04-20 21:31 25.55399 82.71167 35695 ft 443 kts 298°
2026-04-20 21:32 25.59112 82.65717 35694 ft 443 kts 298°
2026-04-20 21:32 25.62802 82.60259 35693 ft 443 kts 298°
2026-04-20 21:33 25.66493 82.54780 35696 ft 443 kts 298°
2026-04-20 21:33 25.70181 82.49298 35696 ft 444 kts 298°
2026-04-20 21:34 25.73873 82.43805 35691 ft 444 kts 298°
2026-04-20 21:34 25.77563 82.38310 35694 ft 444 kts 298°
2026-04-20 21:35 25.81253 82.32808 35694 ft 444 kts 298°
2026-04-20 21:35 25.84920 82.27334 35687 ft 444 kts 298°
2026-04-20 21:36 25.88608 82.21822 35697 ft 445 kts 298°
2026-04-20 21:36 25.92298 82.16301 35691 ft 445 kts 298°
2026-04-20 21:37 25.95988 82.10773 35705 ft 445 kts 298°
2026-04-20 21:37 25.99678 82.05238 35693 ft 445 kts 298°
2026-04-20 21:38 26.03363 81.99705 35695 ft 446 kts 298°
2026-04-20 21:38 26.07028 81.94193 35696 ft 446 kts 298°
2026-04-20 21:39 26.10718 81.88639 35698 ft 446 kts 298°
2026-04-20 21:39 26.14411 81.83074 35699 ft 446 kts 298°
2026-04-20 21:40 26.18100 81.77507 35697 ft 447 kts 298°
2026-04-20 21:40 26.21798 81.71922 35701 ft 447 kts 298°
2026-04-20 21:41 26.25459 81.66383 35702 ft 447 kts 298°
2026-04-20 21:41 26.29152 81.60791 35699 ft 448 kts 298°
2026-04-20 21:42 26.32843 81.55194 35704 ft 448 kts 298°
2026-04-20 21:42 26.36536 81.49587 35703 ft 448 kts 298°
2026-04-20 21:43 26.40228 81.43976 35704 ft 448 kts 298°
2026-04-20 21:43 26.43914 81.38365 35703 ft 449 kts 298°
2026-04-20 21:44 26.47609 81.32736 35705 ft 449 kts 298°
2026-04-20 21:44 26.51273 81.27145 35702 ft 449 kts 299°
2026-04-20 21:45 26.54967 81.21503 35707 ft 450 kts 299°
2026-04-20 21:45 26.58661 81.15854 35710 ft 450 kts 299°
2026-04-20 21:46 26.62348 81.10208 35712 ft 450 kts 299°
2026-04-20 21:46 26.66043 81.04542 35716 ft 451 kts 299°
2026-04-20 21:47 26.69732 80.98878 35720 ft 451 kts 299°
2026-04-20 21:47 26.73422 80.93207 35719 ft 451 kts 299°
2026-04-20 21:48 26.77137 80.87538 35719 ft 453 kts 301°
2026-04-20 21:48 26.81229 80.82122 35719 ft 457 kts 304°
2026-04-20 21:49 26.85428 80.76833 35718 ft 457 kts 304°
2026-04-20 21:49 26.89612 80.71461 35717 ft 457 kts 304°
2026-04-20 21:50 26.93747 80.66058 35713 ft 457 kts 304°
2026-04-20 21:50 26.97871 80.60635 35709 ft 457 kts 304°
2026-04-20 21:51 27.02006 80.55192 35709 ft 457 kts 304°
2026-04-20 21:51 27.06108 80.49791 35709 ft 458 kts 304°
2026-04-20 21:52 27.10238 80.44346 35712 ft 458 kts 304°
2026-04-20 21:52 27.14376 80.38885 35711 ft 459 kts 304°
2026-04-20 21:53 27.18513 80.33419 35710 ft 459 kts 305°
2026-04-20 21:53 27.22657 80.27938 35709 ft 459 kts 305°
2026-04-20 21:54 27.26794 80.22458 35709 ft 460 kts 305°
2026-04-20 21:54 27.30904 80.17007 35713 ft 460 kts 305°
2026-04-20 21:55 27.35040 80.11515 35713 ft 460 kts 305°
2026-04-20 21:55 27.39177 80.06015 35710 ft 461 kts 305°
2026-04-20 21:56 27.43316 80.00504 35719 ft 461 kts 305°
2026-04-20 21:56 27.47453 79.94989 35712 ft 461 kts 305°
2026-04-20 21:57 27.51593 79.89464 35719 ft 461 kts 305°
2026-04-20 21:57 27.55730 79.83935 35720 ft 462 kts 305°
2026-04-20 21:58 27.59843 79.78433 35716 ft 462 kts 305°
2026-04-20 21:58 27.63982 79.72886 35708 ft 462 kts 305°
2026-04-20 21:59 27.68121 79.67335 35719 ft 462 kts 305°
2026-04-20 21:59 27.72578 79.62044 35720 ft 466 kts 310°
2026-04-20 22:00 27.77166 79.56874 35718 ft 466 kts 310°
2026-04-20 22:00 27.81756 79.51741 35714 ft 466 kts 310°
2026-04-20 22:01 27.86359 79.46583 35732 ft 466 kts 310°
2026-04-20 22:01 27.90958 79.41412 35719 ft 466 kts 310°
2026-04-20 22:02 27.95551 79.36239 35736 ft 466 kts 310°
2026-04-20 22:02 28.00136 79.31067 35722 ft 465 kts 310°
2026-04-20 22:03 28.04717 79.25892 35729 ft 465 kts 310°
2026-04-20 22:03 28.09302 79.20707 35730 ft 465 kts 310°
2026-04-20 22:04 28.13875 79.15530 35728 ft 465 kts 310°
2026-04-20 22:04 28.17677 79.11221 35731 ft 465 kts 310°
2026-04-20 22:05 28.22996 79.05183 35735 ft 465 kts 311°
2026-04-20 22:05 28.27564 78.99991 35733 ft 464 kts 311°
2026-04-20 22:06 28.32129 78.94796 35740 ft 464 kts 311°
2026-04-20 22:06 28.35917 78.90481 35739 ft 464 kts 311°
2026-04-20 22:07 28.40472 78.85284 35738 ft 464 kts 311°
2026-04-20 22:07 28.45023 78.80089 35741 ft 464 kts 310°
2026-04-20 22:08 28.49976 78.75335 35742 ft 467 kts 317°
2026-04-20 22:08 28.55128 78.70824 35746 ft 468 kts 318°
2026-04-20 22:09 28.60320 78.66340 35746 ft 468 kts 318°
2026-04-20 22:09 28.65471 78.61879 35743 ft 467 kts 318°
2026-04-20 22:10 28.70634 78.57389 35752 ft 467 kts 318°
2026-04-20 22:10 28.75792 78.52893 35750 ft 467 kts 318°
2026-04-20 22:11 28.80946 78.48393 35752 ft 466 kts 318°
2026-04-20 22:11 28.86103 78.43886 35749 ft 466 kts 318°
2026-04-20 22:12 28.91254 78.39379 35752 ft 466 kts 318°
2026-04-20 22:12 28.96396 78.34873 35753 ft 466 kts 318°
2026-04-20 22:13 29.01505 78.30391 35754 ft 466 kts 318°
2026-04-20 22:13 29.06639 78.25881 35753 ft 465 kts 318°
2026-04-20 22:14 29.11776 78.21362 35757 ft 465 kts 318°
2026-04-20 22:14 29.16903 78.16847 35756 ft 465 kts 318°
2026-04-20 22:15 29.22035 78.12320 35755 ft 465 kts 318°
2026-04-20 22:15 29.27162 78.07793 35754 ft 465 kts 318°
2026-04-20 22:16 29.32253 78.03292 35760 ft 465 kts 318°
2026-04-20 22:16 29.37372 77.98760 35760 ft 465 kts 318°
2026-04-20 22:17 29.42498 77.94215 35759 ft 465 kts 318°
2026-04-20 22:17 29.47616 77.89674 35761 ft 465 kts 318°
2026-04-20 22:18 29.52729 77.85129 35767 ft 465 kts 318°
2026-04-20 22:18 29.57809 77.80607 35757 ft 464 kts 318°
2026-04-20 22:19 29.62913 77.76059 35767 ft 464 kts 318°
2026-04-20 22:19 29.68012 77.71509 35774 ft 464 kts 318°
2026-04-20 22:20 29.73118 77.66948 35762 ft 464 kts 318°
2026-04-20 22:20 29.78217 77.62386 35765 ft 464 kts 318°
2026-04-20 22:21 29.83325 77.57809 35768 ft 464 kts 318°
2026-04-20 22:21 29.88386 77.53270 35772 ft 464 kts 318°
2026-04-20 22:22 29.93474 77.48700 35765 ft 464 kts 318°
2026-04-20 22:22 29.98634 77.44233 35769 ft 466 kts 324°
2026-04-20 22:23 30.04347 77.40613 35773 ft 469 kts 329°
2026-04-20 22:23 30.10179 77.37210 35768 ft 470 kts 329°
2026-04-20 22:24 30.16024 77.33843 35767 ft 470 kts 329°
2026-04-20 22:24 30.21880 77.30450 35767 ft 469 kts 329°
2026-04-20 22:25 30.27681 77.27070 35769 ft 469 kts 329°
2026-04-20 22:25 30.33512 77.23664 35772 ft 469 kts 329°
2026-04-20 22:26 30.39099 77.19826 35779 ft 464 kts 318°
2026-04-20 22:26 30.43544 77.14512 35777 ft 458 kts 306°
2026-04-20 22:27 30.49366 77.05705 35781 ft 458 kts 304°
2026-04-20 22:27 30.53163 76.99822 35776 ft 458 kts 304°
2026-04-20 22:28 30.57003 76.93911 35777 ft 458 kts 305°
2026-04-20 22:28 30.60851 76.88007 35770 ft 458 kts 305°
2026-04-20 22:29 30.64697 76.82107 35771 ft 458 kts 305°
2026-04-20 22:29 30.68262 76.75998 35774 ft 455 kts 295°
2026-04-20 22:30 30.70819 76.69286 35770 ft 454 kts 291°
2026-04-20 22:30 30.73152 76.62496 35766 ft 454 kts 290°
2026-04-20 22:31 30.75461 76.55661 35764 ft 454 kts 290°
2026-04-20 22:31 30.77782 76.48827 35765 ft 454 kts 290°
2026-04-20 22:32 30.80113 76.41992 35764 ft 454 kts 290°
2026-04-20 22:32 30.82442 76.35159 35764 ft 454 kts 290°
2026-04-20 22:33 30.84764 76.28331 35762 ft 454 kts 290°
2026-04-20 22:33 30.87070 76.21535 35763 ft 454 kts 290°
2026-04-20 22:34 30.89382 76.14705 35763 ft 454 kts 290°
2026-04-20 22:34 30.91693 76.07865 35764 ft 454 kts 290°
2026-04-20 22:35 30.94004 76.01014 35766 ft 454 kts 290°
2026-04-20 22:35 30.96311 75.94157 35763 ft 454 kts 290°
2026-04-20 22:36 30.98615 75.87296 35765 ft 454 kts 290°
2026-04-20 22:36 31.00898 75.80483 35764 ft 454 kts 290°
2026-04-20 22:37 31.03193 75.73620 35766 ft 454 kts 290°
2026-04-20 22:37 31.05488 75.66745 35767 ft 454 kts 290°
2026-04-20 22:38 31.07778 75.59870 35765 ft 454 kts 290°
2026-04-20 22:38 31.10061 75.52999 35763 ft 454 kts 290°
2026-04-20 22:39 31.12313 75.46164 35761 ft 454 kts 288°
2026-04-20 22:39 31.14166 75.39122 35763 ft 453 kts 285°
2026-04-20 22:40 31.15841 75.32019 35761 ft 453 kts 285°
2026-04-20 22:40 31.17567 75.24929 35763 ft 453 kts 285°
2026-04-20 22:41 31.19340 75.17859 35765 ft 453 kts 285°
2026-04-20 22:41 31.21127 75.10790 35759 ft 453 kts 286°
2026-04-20 22:42 31.22891 75.03766 35760 ft 454 kts 288°
2026-04-20 22:42 31.24672 74.96666 35760 ft 456 kts 288°
2026-04-20 22:43 31.26458 74.89546 35760 ft 456 kts 288°
2026-04-20 22:43 31.28234 74.82432 35760 ft 456 kts 288°
2026-04-20 22:44 31.30006 74.75314 35758 ft 456 kts 288°
2026-04-20 22:44 31.31772 74.68195 35762 ft 455 kts 288°
2026-04-20 22:45 31.33524 74.61120 35766 ft 455 kts 288°
2026-04-20 22:45 31.35257 74.53999 35773 ft 456 kts 287°
2026-04-20 22:46 31.36657 74.46758 35770 ft 456 kts 285°
2026-04-20 22:46 31.37941 74.39488 35777 ft 456 kts 285°
2026-04-20 22:47 31.39265 74.32231 35773 ft 456 kts 285°
2026-04-20 22:47 31.40624 74.24978 35775 ft 455 kts 286°
2026-04-20 22:48 31.41989 74.17727 35783 ft 455 kts 286°
2026-04-20 22:48 31.43337 74.10540 35780 ft 455 kts 286°
2026-04-20 22:49 31.44548 74.03261 35782 ft 458 kts 280°
2026-04-20 22:49 31.44440 73.95749 35792 ft 465 kts 270°
2026-04-20 22:50 31.43729 73.88196 35790 ft 467 kts 269°
2026-04-20 22:50 31.42923 73.80640 35782 ft 467 kts 269°
2026-04-20 22:51 31.42128 73.73094 35794 ft 467 kts 269°
2026-04-20 22:51 31.41348 73.65539 35792 ft 467 kts 269°
2026-04-20 22:52 31.40568 73.57987 35790 ft 467 kts 269°
2026-04-20 22:52 31.39790 73.50487 35791 ft 467 kts 269°
2026-04-20 22:53 31.39003 73.42942 35788 ft 467 kts 269°
2026-04-20 22:53 31.38211 73.35403 35785 ft 467 kts 269°
2026-04-20 22:54 31.37550 73.29140 35783 ft 466 kts 270°
2026-04-20 22:54 31.36746 73.21561 35780 ft 466 kts 270°
2026-04-20 22:55 31.35943 73.14034 35776 ft 466 kts 270°
2026-04-20 22:55 31.35140 73.06551 35774 ft 466 kts 270°
2026-04-20 22:56 31.34329 72.99024 35773 ft 466 kts 270°
2026-04-20 22:56 31.33519 72.91507 35774 ft 465 kts 270°
2026-04-20 22:57 31.32702 72.84038 35776 ft 465 kts 270°
2026-04-20 22:57 31.31878 72.76538 35780 ft 465 kts 270°
2026-04-20 22:58 31.31050 72.69037 35781 ft 465 kts 270°
2026-04-20 22:58 31.30218 72.61531 35783 ft 465 kts 270°
2026-04-20 22:59 31.29382 72.54030 35782 ft 464 kts 270°
2026-04-20 22:59 31.28543 72.46540 35779 ft 464 kts 270°
2026-04-20 23:00 31.27700 72.39063 35779 ft 464 kts 270°
2026-04-20 23:00 31.27545 72.31698 35781 ft 449 kts 283°
2026-04-20 23:01 31.29149 72.24784 35777 ft 435 kts 300°
2026-04-20 23:01 31.31886 72.18510 35778 ft 433 kts 303°
2026-04-20 23:02 31.34794 72.12342 35779 ft 432 kts 303°
2026-04-20 23:02 31.37696 72.06181 35779 ft 432 kts 303°
2026-04-20 23:03 31.40555 72.00033 35777 ft 432 kts 302°
2026-04-20 23:03 31.43419 71.93830 35778 ft 432 kts 302°
2026-04-20 23:04 31.46273 71.87632 35774 ft 432 kts 302°
2026-04-20 23:04 31.49125 71.81430 35778 ft 431 kts 302°
2026-04-20 23:05 31.51949 71.75281 35777 ft 431 kts 302°
2026-04-20 23:05 31.54788 71.69091 35778 ft 431 kts 302°
2026-04-20 23:06 31.57622 71.62902 35779 ft 430 kts 302°
2026-04-20 23:06 31.60449 71.56730 35781 ft 429 kts 302°
2026-04-20 23:07 31.63263 71.50554 35777 ft 429 kts 301°
2026-04-20 23:07 31.66072 71.44372 35778 ft 429 kts 301°
2026-04-20 23:08 31.68876 71.38196 35779 ft 428 kts 301°
2026-04-20 23:08 31.71659 71.32060 35780 ft 428 kts 301°
2026-04-20 23:09 31.74453 71.25891 35779 ft 428 kts 301°
2026-04-20 23:09 31.77247 71.19710 35781 ft 428 kts 301°
2026-04-20 23:10 31.80039 71.13524 35787 ft 428 kts 301°
2026-04-20 23:10 31.82826 71.07340 35785 ft 428 kts 301°
2026-04-20 23:11 31.85613 71.01145 35788 ft 428 kts 301°
2026-04-20 23:11 31.88379 70.94985 35787 ft 428 kts 301°
2026-04-20 23:12 31.91247 70.88866 35791 ft 426 kts 306°
2026-04-20 23:12 31.94733 70.83234 35790 ft 425 kts 309°
2026-04-20 23:13 31.98340 70.77719 35795 ft 425 kts 309°
2026-04-20 23:13 32.01966 70.72218 35796 ft 425 kts 309°
2026-04-20 23:14 32.05585 70.66704 35799 ft 425 kts 309°
2026-04-20 23:14 32.09174 70.61211 35803 ft 425 kts 308°
2026-04-20 23:15 32.12779 70.55682 35807 ft 425 kts 308°
2026-04-20 23:15 32.16380 70.50150 35810 ft 425 kts 308°
2026-04-20 23:16 32.19991 70.44597 35815 ft 426 kts 308°
2026-04-20 23:16 32.23599 70.39039 35820 ft 426 kts 308°
2026-04-20 23:17 32.27180 70.33516 35831 ft 426 kts 308°
2026-04-20 23:17 32.30780 70.27955 35845 ft 426 kts 308°
2026-04-20 23:18 32.34379 70.22386 35857 ft 426 kts 308°
2026-04-20 23:18 32.37981 70.16813 35866 ft 425 kts 308°
2026-04-20 23:19 32.41625 70.11334 35881 ft 426 kts 308°
2026-04-20 23:19 32.45327 70.05834 35894 ft 427 kts 308°
2026-04-20 23:20 32.49023 70.00313 35907 ft 427 kts 308°
2026-04-20 23:20 32.52704 69.94787 35918 ft 427 kts 308°
2026-04-20 23:21 32.56354 69.89292 35930 ft 427 kts 308°
2026-04-20 23:21 32.60026 69.83756 35940 ft 427 kts 308°
2026-04-20 23:22 32.63698 69.78215 35944 ft 427 kts 308°
2026-04-20 23:22 32.67361 69.72678 35952 ft 427 kts 308°
2026-04-20 23:23 32.71033 69.67117 35960 ft 427 kts 308°
2026-04-20 23:23 32.74706 69.61548 35965 ft 427 kts 308°
2026-04-20 23:24 32.78371 69.55982 35974 ft 427 kts 307°
2026-04-20 23:24 32.82031 69.50416 35982 ft 427 kts 308°
2026-04-20 23:25 32.85661 69.44887 35986 ft 427 kts 307°
2026-04-20 23:25 32.89316 69.39308 35991 ft 427 kts 307°
2026-04-20 23:26 32.92966 69.33706 35995 ft 428 kts 307°
2026-04-20 23:26 32.96615 69.28092 36006 ft 428 kts 307°
2026-04-20 23:27 33.00244 69.22506 36007 ft 428 kts 307°
2026-04-20 23:27 33.03892 69.16885 36012 ft 428 kts 307°
2026-04-20 23:28 33.07537 69.11260 36018 ft 428 kts 307°
2026-04-20 23:28 33.11178 69.05633 36021 ft 429 kts 307°
2026-04-20 23:29 33.14825 68.99986 36027 ft 430 kts 307°
2026-04-20 23:29 33.18453 68.94362 36028 ft 430 kts 307°
2026-04-20 23:30 33.22104 68.88694 36025 ft 430 kts 307°
2026-04-20 23:30 33.25752 68.83021 36021 ft 430 kts 307°
2026-04-20 23:31 33.29422 68.77378 36021 ft 431 kts 308°
2026-04-20 23:31 33.33326 68.71940 36017 ft 431 kts 310°
2026-04-20 23:32 33.37267 68.66576 36019 ft 431 kts 309°
2026-04-20 23:32 33.41203 68.61138 36017 ft 432 kts 309°
2026-04-20 23:33 33.45108 68.55681 36023 ft 432 kts 309°
2026-04-20 23:33 33.49018 68.50194 36025 ft 432 kts 309°
2026-04-20 23:34 33.52891 68.44751 36025 ft 432 kts 309°
2026-04-20 23:34 33.56786 68.39252 36033 ft 432 kts 308°
2026-04-20 23:35 33.62481 68.30872 36042 ft 432 kts 307°
2026-04-20 23:36 33.66249 68.25303 36052 ft 432 kts 307°
2026-04-20 23:36 33.70048 68.19708 36060 ft 432 kts 307°
2026-04-20 23:37 33.73849 68.14111 36066 ft 432 kts 307°
2026-04-20 23:37 33.77650 68.08509 36079 ft 433 kts 307°
2026-04-20 23:38 33.81432 68.02923 36085 ft 433 kts 307°
2026-04-20 23:38 33.85232 67.97304 36094 ft 432 kts 307°
2026-04-20 23:39 33.89020 67.91692 36097 ft 432 kts 307°
2026-04-20 23:39 33.92806 67.86074 36098 ft 432 kts 307°
2026-04-20 23:40 33.96595 67.80440 36101 ft 432 kts 307°
2026-04-20 23:40 34.00377 67.74805 36105 ft 433 kts 306°
2026-04-20 23:41 34.04100 67.69162 36103 ft 433 kts 306°
2026-04-20 23:41 34.07853 67.63455 36110 ft 434 kts 306°
2026-04-20 23:42 34.11603 67.57754 36102 ft 433 kts 306°
2026-04-20 23:42 34.15349 67.52057 36102 ft 433 kts 306°
2026-04-20 23:43 34.19100 67.46352 36090 ft 434 kts 306°
2026-04-20 23:43 34.22854 67.40631 36098 ft 434 kts 306°
2026-04-20 23:44 34.25969 67.35871 36103 ft 435 kts 306°
2026-04-20 23:44 34.30329 67.29202 36094 ft 435 kts 306°
2026-04-20 23:45 34.33446 67.24423 36094 ft 435 kts 306°
2026-04-20 23:45 34.37188 67.18683 36103 ft 435 kts 306°
2026-04-20 23:46 34.41541 67.11994 36096 ft 435 kts 305°
2026-04-20 23:46 34.44656 67.07199 36095 ft 436 kts 305°
2026-04-20 23:47 34.48398 67.01428 36103 ft 436 kts 305°
2026-04-20 23:47 34.52149 66.95642 36101 ft 435 kts 305°
2026-04-20 23:48 34.55891 66.89864 36101 ft 436 kts 305°
2026-04-20 23:48 34.59630 66.84064 36101 ft 436 kts 305°
2026-04-20 23:49 34.63368 66.78248 36105 ft 436 kts 305°
2026-04-20 23:49 34.67099 66.72437 36104 ft 436 kts 305°
2026-04-20 23:50 34.70834 66.66615 36109 ft 436 kts 305°
2026-04-20 23:50 34.74554 66.60799 36098 ft 436 kts 304°
2026-04-20 23:51 34.78259 66.54998 36106 ft 437 kts 304°
2026-04-20 23:51 34.81989 66.49156 36109 ft 437 kts 304°
2026-04-20 23:52 34.85710 66.43314 36105 ft 436 kts 305°
2026-04-20 23:52 34.89425 66.37473 36083 ft 435 kts 304°
2026-04-20 23:53 34.93106 66.31675 36105 ft 435 kts 304°
2026-04-20 23:53 34.96812 66.25829 36084 ft 434 kts 304°
2026-04-20 23:54 35.00481 66.20004 36087 ft 433 kts 304°
2026-04-20 23:54 35.04130 66.14152 36097 ft 434 kts 304°
2026-04-20 23:55 35.07776 66.08307 36068 ft 433 kts 304°
2026-04-20 23:55 35.11427 66.02434 36075 ft 434 kts 304°
2026-04-20 23:56 35.15087 65.96548 36070 ft 434 kts 304°
2026-04-20 23:56 35.18708 65.90715 36062 ft 433 kts 304°
2026-04-20 23:57 35.22345 65.84845 36056 ft 433 kts 304°
2026-04-20 23:57 35.25984 65.78964 36051 ft 433 kts 303°
2026-04-20 23:58 35.29615 65.73085 36044 ft 433 kts 303°
2026-04-20 23:58 35.33246 65.67196 36032 ft 433 kts 303°
2026-04-20 23:59 35.36876 65.61302 36022 ft 433 kts 303°
2026-04-20 23:59 35.40500 65.55406 36014 ft 433 kts 303°
2026-04-21 00:00 35.44126 65.49496 36007 ft 433 kts 303°
2026-04-21 00:00 35.47739 65.43598 35990 ft 433 kts 303°
2026-04-21 00:01 35.51353 65.37689 35974 ft 432 kts 302°
2026-04-21 00:01 35.54955 65.31787 35962 ft 432 kts 302°
2026-04-21 00:02 35.58542 65.25902 35950 ft 431 kts 302°
2026-04-21 00:02 35.62135 65.19996 35942 ft 431 kts 302°
2026-04-21 00:03 35.65719 65.14098 35931 ft 431 kts 302°
2026-04-21 00:03 35.69299 65.08194 35913 ft 431 kts 302°
2026-04-21 00:04 35.72880 65.02278 35900 ft 430 kts 302°
2026-04-21 00:04 35.76460 64.96352 35886 ft 431 kts 302°
2026-04-21 00:05 35.80040 64.90417 35877 ft 432 kts 302°
2026-04-21 00:05 35.83600 64.84507 35864 ft 432 kts 302°
2026-04-21 00:06 35.87176 64.78559 35853 ft 431 kts 302°
2026-04-21 00:06 35.90751 64.72602 35844 ft 432 kts 302°
2026-04-21 00:07 35.94325 64.66633 35834 ft 433 kts 302°
2026-04-21 00:07 35.97901 64.60656 35828 ft 433 kts 302°
2026-04-21 00:08 36.01478 64.54667 35817 ft 433 kts 302°
2026-04-21 00:08 36.05052 64.48670 35817 ft 433 kts 302°
2026-04-21 00:09 36.08622 64.42674 35818 ft 433 kts 302°
2026-04-21 00:09 36.12189 64.36669 35812 ft 433 kts 302°
2026-04-21 00:10 36.15733 64.30695 35814 ft 434 kts 301°
2026-04-21 00:10 36.19349 64.24713 35812 ft 434 kts 303°
2026-04-21 00:11 36.23076 64.18815 35807 ft 435 kts 303°
2026-04-21 00:11 36.26806 64.12919 35809 ft 434 kts 303°
2026-04-21 00:12 36.30517 64.07003 35807 ft 434 kts 303°
2026-04-21 00:12 36.34213 64.01078 35807 ft 434 kts 303°
2026-04-21 00:13 36.37880 63.95183 35809 ft 434 kts 303°
2026-04-21 00:13 36.41569 63.89246 35808 ft 434 kts 302°
2026-04-21 00:14 36.45253 63.83308 35807 ft 434 kts 302°
2026-04-21 00:14 36.48939 63.77356 35808 ft 434 kts 302°
2026-04-21 00:15 36.52624 63.71397 35809 ft 434 kts 302°
2026-04-21 00:15 36.56276 63.65479 35807 ft 434 kts 302°
2026-04-21 00:16 36.59970 63.59483 35808 ft 433 kts 302°
2026-04-21 00:16 36.63614 63.53559 35807 ft 433 kts 302°
2026-04-21 00:17 36.67275 63.47595 35810 ft 433 kts 302°
2026-04-21 00:17 36.70932 63.41628 35809 ft 433 kts 302°
2026-04-21 00:18 36.74587 63.35652 35804 ft 433 kts 302°
2026-04-21 00:18 36.78210 63.29722 35800 ft 432 kts 302°
2026-04-21 00:19 36.81848 63.23753 35809 ft 432 kts 302°
2026-04-21 00:19 36.85485 63.17777 35803 ft 432 kts 302°
2026-04-21 00:20 36.89118 63.11795 35801 ft 432 kts 302°
2026-04-21 00:20 36.92749 63.05808 35799 ft 431 kts 302°
2026-04-21 00:21 36.96370 62.99826 35796 ft 431 kts 302°
2026-04-21 00:21 36.99988 62.93838 35797 ft 431 kts 301°
2026-04-21 00:22 37.03605 62.87841 35801 ft 431 kts 301°
2026-04-21 00:22 37.07192 62.81884 35798 ft 431 kts 301°
2026-04-21 00:23 37.10794 62.75891 35797 ft 430 kts 301°
2026-04-21 00:23 37.14392 62.69893 35799 ft 430 kts 301°
2026-04-21 00:24 37.17983 62.63897 35800 ft 430 kts 301°
2026-04-21 00:24 37.21570 62.57898 35799 ft 429 kts 301°
2026-04-21 00:25 37.25148 62.51901 35803 ft 429 kts 301°
2026-04-21 00:25 37.28722 62.45900 35802 ft 428 kts 301°
2026-04-21 00:26 37.32268 62.39936 35808 ft 428 kts 301°
2026-04-21 00:26 37.35827 62.33940 35812 ft 427 kts 301°
2026-04-21 00:27 37.39379 62.27944 35811 ft 427 kts 301°
2026-04-21 00:27 37.42922 62.21953 35818 ft 427 kts 301°
2026-04-21 00:28 37.46463 62.15955 35825 ft 426 kts 301°
2026-04-21 00:28 37.49997 62.09958 35826 ft 426 kts 300°
2026-04-21 00:29 37.52932 62.04967 35828 ft 426 kts 300°
2026-04-21 00:29 37.57033 61.97983 35832 ft 427 kts 300°
2026-04-21 00:30 37.60566 61.91955 35829 ft 427 kts 300°
2026-04-21 00:30 37.63602 61.85608 35836 ft 421 kts 292°
2026-04-21 00:31 37.65854 61.80111 35834 ft 421 kts 291°
2026-04-21 00:31 37.68906 61.72435 35821 ft 421 kts 291°
2026-04-21 00:32 37.71087 61.66931 35831 ft 422 kts 291°
2026-04-21 00:32 37.73721 61.60295 35828 ft 422 kts 291°
2026-04-21 00:33 37.76359 61.53652 35835 ft 423 kts 291°
2026-04-21 00:33 37.78995 61.47004 35829 ft 423 kts 291°
2026-04-21 00:34 37.81631 61.40339 35826 ft 424 kts 291°
2026-04-21 00:34 37.84260 61.33676 35814 ft 424 kts 290°
2026-04-21 00:35 37.86874 61.27037 35818 ft 424 kts 290°
2026-04-21 00:35 37.89506 61.20339 35817 ft 424 kts 290°
2026-04-21 00:36 37.92133 61.13639 35820 ft 425 kts 290°
2026-04-21 00:36 37.94761 61.06922 35820 ft 425 kts 290°
2026-04-21 00:37 37.97381 61.00211 35815 ft 425 kts 290°
2026-04-21 00:37 37.99999 60.93488 35816 ft 425 kts 290°
2026-04-21 00:38 38.02614 60.86759 35816 ft 425 kts 290°
2026-04-21 00:38 38.05226 60.80024 35816 ft 426 kts 290°
2026-04-21 00:39 38.07819 60.73321 35817 ft 426 kts 290°
2026-04-21 00:39 38.10426 60.66569 35818 ft 426 kts 290°
2026-04-21 00:40 38.13034 60.59801 35818 ft 426 kts 290°
2026-04-21 00:40 38.15636 60.53030 35817 ft 426 kts 290°
2026-04-21 00:41 38.18219 60.46299 35815 ft 426 kts 290°
2026-04-21 00:41 38.20809 60.39533 35817 ft 426 kts 290°
2026-04-21 00:42 38.23396 60.32758 35817 ft 426 kts 290°
2026-04-21 00:42 38.25979 60.25979 35814 ft 426 kts 290°
2026-04-21 00:43 38.28559 60.19193 35811 ft 426 kts 289°
2026-04-21 00:43 38.31141 60.12388 35814 ft 426 kts 289°
2026-04-21 00:44 38.33715 60.05587 35813 ft 427 kts 289°
2026-04-21 00:44 38.36290 59.98769 35815 ft 427 kts 289°
2026-04-21 00:45 38.40137 59.88551 35810 ft 429 kts 289°
2026-04-21 00:45 38.42716 59.81684 35813 ft 429 kts 289°
2026-04-21 00:46 38.45298 59.74794 35812 ft 430 kts 289°
2026-04-21 00:46 38.47875 59.67902 35811 ft 431 kts 289°
2026-04-21 00:47 38.50458 59.60976 35809 ft 431 kts 289°
2026-04-21 00:47 38.53017 59.54098 35951 ft 432 kts 289°
2026-04-21 00:48 38.54306 59.50628 36164 ft 433 kts 289°
2026-04-21 00:48 38.55596 59.47150 36384 ft 433 kts 289°
2026-04-21 00:48 38.56885 59.43674 36613 ft 433 kts 289°
2026-04-21 00:48 38.58172 59.40197 36837 ft 433 kts 289°
2026-04-21 00:49 38.59461 59.36714 37088 ft 433 kts 289°
2026-04-21 00:49 38.60768 59.33251 37311 ft 433 kts 290°
2026-04-21 00:49 38.62131 59.29806 37524 ft 434 kts 291°
2026-04-21 00:49 38.63515 59.26378 37737 ft 434 kts 291°
2026-04-21 00:50 38.64904 59.22952 37937 ft 434 kts 291°
2026-04-21 00:50 38.66289 59.19521 38123 ft 434 kts 291°
2026-04-21 00:50 38.67667 59.16085 38319 ft 434 kts 291°
2026-04-21 00:50 38.69039 59.12645 38493 ft 433 kts 291°
2026-04-21 00:51 38.70407 59.09199 38634 ft 434 kts 291°
2026-04-21 00:51 38.71773 59.05750 38742 ft 435 kts 291°
2026-04-21 00:51 38.73138 59.02295 38854 ft 435 kts 291°
2026-04-21 00:51 38.74502 58.98838 38989 ft 435 kts 291°
2026-04-21 00:52 38.75868 58.95374 39100 ft 436 kts 291°
2026-04-21 00:52 38.77233 58.91908 39206 ft 436 kts 291°
2026-04-21 00:52 38.78586 58.88471 39308 ft 437 kts 291°
2026-04-21 00:52 38.79956 58.84988 39420 ft 437 kts 291°
2026-04-21 00:53 38.81322 58.81509 39523 ft 438 kts 291°
2026-04-21 00:53 38.82691 58.78020 39625 ft 438 kts 291°
2026-04-21 00:53 38.85435 58.71014 39804 ft 439 kts 291°
2026-04-21 00:54 38.88163 58.63956 39829 ft 442 kts 289°
2026-04-21 00:54 38.90355 58.56625 39840 ft 439 kts 285°
2026-04-21 00:55 38.92388 58.49238 39844 ft 438 kts 285°
2026-04-21 00:55 38.94378 58.41882 39851 ft 438 kts 285°
2026-04-21 00:56 38.96383 58.34469 39851 ft 439 kts 285°
2026-04-21 00:56 38.98388 58.27059 39852 ft 439 kts 285°
2026-04-21 00:57 39.00391 58.19646 39854 ft 439 kts 285°
2026-04-21 00:57 39.02388 58.12235 39854 ft 439 kts 284°
2026-04-21 00:58 39.04383 58.04806 39860 ft 439 kts 284°
2026-04-21 00:58 39.06360 57.97424 39858 ft 439 kts 284°
2026-04-21 00:59 39.08345 57.89987 39861 ft 439 kts 284°
2026-04-21 00:59 39.10324 57.82553 39863 ft 439 kts 284°
2026-04-21 01:00 39.12301 57.75104 39868 ft 439 kts 284°
2026-04-21 01:00 39.14272 57.67658 39868 ft 439 kts 284°
2026-04-21 01:01 39.16226 57.60250 39875 ft 439 kts 284°
2026-04-21 01:01 39.18189 57.52789 39873 ft 440 kts 284°
2026-04-21 01:02 39.20150 57.45314 39877 ft 440 kts 284°
2026-04-21 01:02 39.22105 57.37836 39882 ft 440 kts 284°
2026-04-21 01:03 39.24055 57.30359 39884 ft 440 kts 284°
2026-04-21 01:03 39.26001 57.22869 39883 ft 440 kts 284°
2026-04-21 01:04 39.27943 57.15374 39890 ft 440 kts 284°
2026-04-21 01:04 39.29868 57.07924 39883 ft 441 kts 284°
2026-04-21 01:05 39.31804 57.00407 39880 ft 441 kts 284°
2026-04-21 01:05 39.33736 56.92886 39887 ft 442 kts 283°
2026-04-21 01:06 39.35666 56.85347 39888 ft 442 kts 283°
2026-04-21 01:06 39.37583 56.77793 39889 ft 441 kts 283°
2026-04-21 01:07 39.39344 56.70193 39888 ft 441 kts 282°
2026-04-21 01:07 39.41042 56.62630 39894 ft 441 kts 282°
2026-04-21 01:08 39.42770 56.55009 39895 ft 441 kts 282°
2026-04-21 01:08 39.44510 56.47382 39898 ft 441 kts 282°
2026-04-21 01:09 39.46249 56.39761 39900 ft 442 kts 282°
2026-04-21 01:09 39.47985 56.32126 39900 ft 442 kts 282°
2026-04-21 01:10 39.49705 56.24531 39899 ft 442 kts 282°
2026-04-21 01:10 39.51428 56.16891 39900 ft 442 kts 282°
2026-04-21 01:11 39.53148 56.09243 39898 ft 442 kts 282°
2026-04-21 01:11 39.54861 56.01600 39902 ft 442 kts 282°
2026-04-21 01:12 39.56573 55.93937 39902 ft 442 kts 282°
2026-04-21 01:12 39.58283 55.86270 39907 ft 442 kts 282°
2026-04-21 01:13 39.60000 55.78609 39903 ft 442 kts 281°
2026-04-21 01:13 39.61705 55.70991 39905 ft 443 kts 281°
2026-04-21 01:14 39.63416 55.63314 39907 ft 443 kts 281°
2026-04-21 01:14 39.65123 55.55623 39909 ft 443 kts 281°
2026-04-21 01:15 39.66824 55.47928 39907 ft 444 kts 281°
2026-04-21 01:15 39.68524 55.40210 39910 ft 445 kts 281°
2026-04-21 01:16 39.70220 55.32488 39909 ft 445 kts 281°
2026-04-21 01:16 39.71908 55.24742 39909 ft 446 kts 281°
2026-04-21 01:17 39.73308 55.18288 39915 ft 447 kts 281°
2026-04-21 01:17 39.75267 55.09230 39913 ft 448 kts 281°
2026-04-21 01:18 39.76948 55.01433 39913 ft 448 kts 281°
2026-04-21 01:18 39.78627 54.93618 39912 ft 449 kts 281°
2026-04-21 01:19 39.80303 54.85786 39919 ft 450 kts 281°
2026-04-21 01:19 39.81966 54.77994 39919 ft 450 kts 281°
2026-04-21 01:20 39.83370 54.71420 39914 ft 450 kts 281°
2026-04-21 01:20 39.85047 54.63564 39911 ft 451 kts 281°
2026-04-21 01:21 39.86713 54.55730 39917 ft 451 kts 281°
2026-04-21 01:21 39.88388 54.47828 39909 ft 452 kts 281°
2026-04-21 01:22 39.90055 54.39924 39911 ft 452 kts 281°
2026-04-21 01:22 39.91705 54.32009 39910 ft 453 kts 281°
2026-04-21 01:23 39.93350 54.24085 39910 ft 453 kts 281°
2026-04-21 01:23 39.94983 54.16201 39907 ft 454 kts 280°
2026-04-21 01:24 39.96623 54.08254 39911 ft 454 kts 280°
2026-04-21 01:24 39.98260 54.00295 39911 ft 454 kts 280°
2026-04-21 01:25 39.99890 53.92340 39907 ft 454 kts 280°
2026-04-21 01:25 40.01516 53.84371 39909 ft 455 kts 280°
2026-04-21 01:26 40.03138 53.76394 39909 ft 455 kts 280°
2026-04-21 01:26 40.04755 53.68411 39907 ft 455 kts 280°
2026-04-21 01:27 40.06369 53.60409 39907 ft 455 kts 280°
2026-04-21 01:27 40.07965 53.52465 39912 ft 456 kts 280°
2026-04-21 01:28 40.09568 53.44460 39911 ft 456 kts 280°
2026-04-21 01:28 40.11168 53.36437 39912 ft 456 kts 280°
2026-04-21 01:29 40.12763 53.28409 39913 ft 456 kts 280°
2026-04-21 01:29 40.14350 53.20384 39913 ft 456 kts 280°
2026-04-21 01:30 40.15933 53.12351 39914 ft 456 kts 280°
2026-04-21 01:30 40.17500 53.04363 39912 ft 456 kts 280°
2026-04-21 01:31 40.19072 52.96322 39914 ft 456 kts 279°
2026-04-21 01:31 40.20639 52.88277 39912 ft 456 kts 279°
2026-04-21 01:32 40.22200 52.80230 39918 ft 456 kts 279°
2026-04-21 01:32 40.23745 52.72229 39917 ft 456 kts 279°
2026-04-21 01:33 40.25295 52.64172 39917 ft 456 kts 279°
2026-04-21 01:33 40.26841 52.56114 39924 ft 456 kts 279°
2026-04-21 01:34 40.28388 52.48043 39930 ft 457 kts 279°
2026-04-21 01:34 40.29927 52.39964 39939 ft 457 kts 279°
2026-04-21 01:35 40.31461 52.31879 39938 ft 457 kts 279°
2026-04-21 01:35 40.32979 52.23847 39944 ft 457 kts 279°
2026-04-21 01:36 40.34504 52.15750 39951 ft 457 kts 279°
2026-04-21 01:36 40.36020 52.07666 39947 ft 456 kts 279°
2026-04-21 01:37 40.37530 51.99583 39954 ft 456 kts 279°
2026-04-21 01:37 40.39032 51.91507 39960 ft 455 kts 279°
2026-04-21 01:38 40.40526 51.83438 39961 ft 455 kts 279°
2026-04-21 01:38 40.42014 51.75371 39963 ft 454 kts 279°
2026-04-21 01:39 40.43485 51.67364 39968 ft 454 kts 279°
2026-04-21 01:39 40.44958 51.59309 39972 ft 453 kts 279°
2026-04-21 01:40 40.46424 51.51258 39974 ft 453 kts 278°
2026-04-21 01:40 40.47955 51.43225 39979 ft 454 kts 280°
2026-04-21 01:41 40.49624 51.35207 39981 ft 455 kts 280°
2026-04-21 01:41 40.51291 51.27174 39983 ft 455 kts 280°
2026-04-21 01:42 40.52926 51.19143 39993 ft 455 kts 280°
2026-04-21 01:42 40.54537 51.11144 39993 ft 455 kts 280°
2026-04-21 01:43 40.56151 51.03091 39991 ft 455 kts 280°
2026-04-21 01:43 40.57762 50.95022 39995 ft 456 kts 280°
2026-04-21 01:44 40.59369 50.86948 39994 ft 456 kts 280°
2026-04-21 01:44 40.60973 50.78860 39988 ft 457 kts 279°
2026-04-21 01:45 40.62569 50.70774 39989 ft 457 kts 279°
2026-04-21 01:45 40.64164 50.62664 39985 ft 457 kts 279°
2026-04-21 01:46 40.65754 50.54550 39989 ft 457 kts 279°
2026-04-21 01:46 40.67326 50.46491 39981 ft 458 kts 279°
2026-04-21 01:47 40.68910 50.38359 39982 ft 457 kts 279°
2026-04-21 01:47 40.70478 50.30231 39981 ft 457 kts 279°
2026-04-21 01:48 40.72037 50.22103 39989 ft 457 kts 279°
2026-04-21 01:48 40.73591 50.13978 39985 ft 457 kts 279°
2026-04-21 01:49 40.75140 50.05853 39988 ft 456 kts 279°
2026-04-21 01:49 40.76682 49.97737 39994 ft 456 kts 279°
2026-04-21 01:50 40.78208 49.89668 39999 ft 456 kts 279°
2026-04-21 01:50 40.79739 49.81540 40008 ft 456 kts 279°
2026-04-21 01:51 40.81264 49.73408 40012 ft 456 kts 279°
2026-04-21 01:51 40.82782 49.65279 40011 ft 456 kts 279°
2026-04-21 01:52 40.85051 49.53065 40019 ft 457 kts 279°
2026-04-21 01:53 40.86559 49.44904 40019 ft 457 kts 279°
2026-04-21 01:53 40.88053 49.36784 40015 ft 458 kts 279°
2026-04-21 01:54 40.89532 49.28589 40015 ft 458 kts 278°
2026-04-21 01:54 40.90913 49.20366 40020 ft 458 kts 278°
2026-04-21 01:55 40.92281 49.12138 40025 ft 459 kts 278°
2026-04-21 01:55 40.93661 49.03888 40031 ft 459 kts 278°
2026-04-21 01:56 40.95037 48.95680 40037 ft 460 kts 278°
2026-04-21 01:56 40.96419 48.87409 40030 ft 461 kts 278°
2026-04-21 01:57 40.97796 48.79120 40037 ft 461 kts 278°
2026-04-21 01:57 40.99168 48.70821 40031 ft 462 kts 278°
2026-04-21 01:58 41.00536 48.62509 40030 ft 462 kts 278°
2026-04-21 01:58 41.01899 48.54184 40024 ft 462 kts 278°
2026-04-21 01:59 41.03255 48.45863 40024 ft 462 kts 278°
2026-04-21 01:59 41.04606 48.37536 40011 ft 462 kts 278°
2026-04-21 02:00 41.05941 48.29263 40010 ft 462 kts 278°
2026-04-21 02:00 41.07280 48.20930 39997 ft 462 kts 278°
2026-04-21 02:01 41.08609 48.12604 39985 ft 462 kts 278°
2026-04-21 02:01 41.09936 48.04266 39979 ft 462 kts 278°
2026-04-21 02:02 41.11254 47.95946 39972 ft 461 kts 278°
2026-04-21 02:02 41.12563 47.87621 39974 ft 461 kts 278°
2026-04-21 02:03 41.13870 47.79291 39972 ft 461 kts 278°
2026-04-21 02:03 41.15168 47.70976 39965 ft 461 kts 278°
2026-04-21 02:04 41.16455 47.62692 39970 ft 461 kts 278°
2026-04-21 02:04 41.17742 47.54353 39970 ft 461 kts 278°
2026-04-21 02:05 41.19023 47.46016 39973 ft 461 kts 278°
2026-04-21 02:05 41.20297 47.37677 39968 ft 461 kts 278°
2026-04-21 02:06 41.21570 47.29320 39979 ft 461 kts 278°
2026-04-21 02:06 41.22839 47.20938 39973 ft 462 kts 278°
2026-04-21 02:07 41.23887 47.13977 39968 ft 462 kts 277°
2026-04-21 02:07 41.25143 47.05601 39974 ft 462 kts 277°
2026-04-21 02:08 41.26595 46.95856 39976 ft 463 kts 277°
2026-04-21 02:08 41.27841 46.87452 39989 ft 463 kts 277°
2026-04-21 02:09 41.28872 46.80461 39998 ft 463 kts 277°
2026-04-21 02:09 41.30108 46.72046 40003 ft 464 kts 277°
2026-04-21 02:10 41.31300 46.63607 40006 ft 464 kts 277°
2026-04-21 02:10 41.32465 46.55174 40004 ft 464 kts 277°
2026-04-21 02:11 41.33633 46.46729 39999 ft 464 kts 277°
2026-04-21 02:11 41.34801 46.38273 39989 ft 464 kts 277°
2026-04-21 02:12 41.35958 46.29864 39967 ft 464 kts 277°
2026-04-21 02:12 41.37117 46.21392 39968 ft 464 kts 277°
2026-04-21 02:13 41.38267 46.12936 39971 ft 464 kts 277°
2026-04-21 02:13 41.39410 46.04480 39970 ft 464 kts 277°
2026-04-21 02:14 41.40551 45.95998 39957 ft 464 kts 277°
2026-04-21 02:14 41.41682 45.87530 39964 ft 464 kts 277°
2026-04-21 02:15 41.42806 45.79074 39966 ft 463 kts 277°
2026-04-21 02:15 41.43922 45.70624 39963 ft 463 kts 277°
2026-04-21 02:16 41.45025 45.62224 39962 ft 463 kts 277°
2026-04-21 02:16 41.46127 45.53783 39961 ft 462 kts 277°
2026-04-21 02:17 41.47223 45.45342 39960 ft 462 kts 277°
2026-04-21 02:17 41.48311 45.36906 39959 ft 462 kts 276°
2026-04-21 02:18 41.49188 45.28431 39961 ft 460 kts 273°
2026-04-21 02:18 41.49795 45.19994 39961 ft 460 kts 272°
2026-04-21 02:19 41.50415 45.11503 39963 ft 460 kts 273°
2026-04-21 02:19 41.51079 45.03018 39962 ft 460 kts 273°
2026-04-21 02:20 41.51757 44.94536 39968 ft 460 kts 273°
2026-04-21 02:20 41.52432 44.86035 39968 ft 460 kts 273°
2026-04-21 02:21 41.53098 44.77540 39960 ft 460 kts 273°
2026-04-21 02:21 41.53756 44.69044 39969 ft 461 kts 273°
2026-04-21 02:22 41.54408 44.60538 39961 ft 461 kts 273°
2026-04-21 02:22 41.55054 44.52029 39970 ft 461 kts 273°
2026-04-21 02:23 41.55691 44.43558 39964 ft 461 kts 273°
2026-04-21 02:23 41.56326 44.35026 39961 ft 462 kts 273°
2026-04-21 02:24 41.57081 44.26486 39978 ft 464 kts 278°
2026-04-21 02:24 41.59205 44.18301 39976 ft 471 kts 292°
2026-04-21 02:25 41.62249 44.10515 39973 ft 473 kts 295°
2026-04-21 02:25 41.65405 44.02837 39980 ft 474 kts 295°
2026-04-21 02:26 41.68573 43.95100 39983 ft 474 kts 295°
2026-04-21 02:26 41.71714 43.87339 39986 ft 474 kts 294°
2026-04-21 02:27 41.74846 43.79550 39988 ft 475 kts 294°
2026-04-21 02:27 41.77973 43.71752 39995 ft 475 kts 294°
2026-04-21 02:28 41.81096 43.63944 39996 ft 475 kts 294°
2026-04-21 02:28 41.84213 43.56134 40006 ft 475 kts 294°
2026-04-21 02:29 41.87324 43.48315 40004 ft 475 kts 294°
2026-04-21 02:29 41.90411 43.40536 40007 ft 475 kts 294°
2026-04-21 02:30 41.93517 43.32691 40012 ft 475 kts 294°
2026-04-21 02:30 41.96617 43.24837 40008 ft 476 kts 294°
2026-04-21 02:31 41.99714 43.16969 40007 ft 476 kts 294°
2026-04-21 02:31 42.02673 43.09029 40002 ft 473 kts 288°
2026-04-21 02:32 42.04207 43.00537 39994 ft 466 kts 272°
2026-04-21 02:32 42.03733 42.91937 39995 ft 461 kts 255°
2026-04-21 02:33 42.01526 42.83848 40004 ft 461 kts 246°
2026-04-21 02:33 41.98932 42.76016 39993 ft 461 kts 245°
2026-04-21 02:34 41.96291 42.68150 40002 ft 462 kts 245°
2026-04-21 02:34 41.93677 42.60272 39997 ft 462 kts 246°
2026-04-21 02:35 41.91072 42.52383 39995 ft 462 kts 246°
2026-04-21 02:35 41.88465 42.44493 39996 ft 462 kts 246°
2026-04-21 02:36 41.85851 42.36611 40001 ft 462 kts 246°
2026-04-21 02:36 41.83243 42.28773 40008 ft 462 kts 245°
2026-04-21 02:37 41.80620 42.20913 40006 ft 462 kts 245°
2026-04-21 02:37 41.77985 42.13040 40014 ft 462 kts 245°
2026-04-21 02:38 41.75350 42.05188 40016 ft 462 kts 245°
2026-04-21 02:38 41.72701 41.97320 40020 ft 463 kts 245°
2026-04-21 02:39 41.70050 41.89467 40023 ft 463 kts 245°
2026-04-21 02:39 41.67392 41.81614 40020 ft 463 kts 245°
2026-04-21 02:40 41.64732 41.73778 40022 ft 463 kts 245°
2026-04-21 02:40 41.62081 41.65990 40020 ft 463 kts 245°
2026-04-21 02:41 41.59409 41.58164 40021 ft 463 kts 245°
2026-04-21 02:41 41.56785 41.50303 40023 ft 463 kts 249°
2026-04-21 02:42 41.55338 41.41958 40022 ft 464 kts 265°
2026-04-21 02:42 41.55483 41.33336 40025 ft 466 kts 272°
2026-04-21 02:43 41.55997 41.24703 40022 ft 466 kts 273°
2026-04-21 02:43 41.56537 41.16060 40021 ft 466 kts 273°
2026-04-21 02:44 41.57040 41.07429 40019 ft 466 kts 272°
2026-04-21 02:44 41.57518 40.98799 40017 ft 466 kts 272°
2026-04-21 02:45 41.57985 40.90157 40015 ft 466 kts 272°
2026-04-21 02:45 41.58443 40.81579 40013 ft 466 kts 272°
2026-04-21 02:46 41.58899 40.72942 40010 ft 466 kts 272°
2026-04-21 02:46 41.59349 40.64302 40010 ft 466 kts 272°
2026-04-21 02:47 41.59794 40.55659 40010 ft 466 kts 272°
2026-04-21 02:47 41.60230 40.47022 40010 ft 466 kts 272°
2026-04-21 02:48 41.60660 40.38384 40007 ft 466 kts 272°
2026-04-21 02:48 41.61084 40.29733 40007 ft 466 kts 272°
2026-04-21 02:49 41.61502 40.21093 40007 ft 466 kts 272°
2026-04-21 02:49 41.61912 40.12449 40010 ft 466 kts 272°
2026-04-21 02:50 41.62316 40.03816 40009 ft 466 kts 272°
2026-04-21 02:50 41.62714 39.95183 40006 ft 466 kts 272°
2026-04-21 02:51 41.63103 39.86593 40004 ft 466 kts 272°
2026-04-21 02:51 41.63488 39.77949 40004 ft 466 kts 272°
2026-04-21 02:52 41.63867 39.69301 40005 ft 466 kts 272°
2026-04-21 02:52 41.64239 39.60658 40005 ft 466 kts 272°
2026-04-21 02:53 41.64609 39.52011 40001 ft 466 kts 272°
2026-04-21 02:53 41.64965 39.43365 40002 ft 466 kts 272°
2026-04-21 02:54 41.65256 39.36171 39999 ft 465 kts 272°
2026-04-21 02:54 41.65600 39.27526 39999 ft 465 kts 272°
2026-04-21 02:55 41.65940 39.18884 39997 ft 465 kts 272°
2026-04-21 02:55 41.66326 39.08852 39996 ft 465 kts 272°
2026-04-21 02:56 41.66599 39.01617 39993 ft 465 kts 272°
2026-04-21 02:56 41.67076 38.88672 39995 ft 464 kts 272°
2026-04-21 02:57 41.67383 38.80103 39997 ft 464 kts 272°
2026-04-21 02:57 41.67686 38.71485 39997 ft 464 kts 272°
2026-04-21 02:58 41.67983 38.62858 39993 ft 464 kts 272°
2026-04-21 02:58 41.68273 38.54240 39994 ft 464 kts 272°
2026-04-21 02:59 41.68557 38.45612 39991 ft 464 kts 272°
2026-04-21 02:59 41.68834 38.36992 39991 ft 463 kts 272°
2026-04-21 03:00 41.69105 38.28374 39989 ft 463 kts 272°
2026-04-21 03:00 41.69369 38.19760 39989 ft 463 kts 271°
2026-04-21 03:01 41.69624 38.11212 39986 ft 463 kts 271°
2026-04-21 03:01 41.69876 38.02598 39982 ft 463 kts 271°
2026-04-21 03:02 41.70120 37.93993 39980 ft 463 kts 271°
2026-04-21 03:02 41.70358 37.85382 39977 ft 462 kts 271°
2026-04-21 03:03 41.70590 37.76781 39974 ft 462 kts 271°
2026-04-21 03:03 41.70815 37.68170 39971 ft 463 kts 271°
2026-04-21 03:04 41.71037 37.59611 39969 ft 462 kts 271°
2026-04-21 03:04 41.71247 37.50996 39970 ft 462 kts 271°
2026-04-21 03:05 41.71450 37.42395 39962 ft 462 kts 271°
2026-04-21 03:05 41.71648 37.33786 39960 ft 462 kts 271°
2026-04-21 03:06 41.71840 37.25180 39959 ft 462 kts 271°
2026-04-21 03:06 41.72026 37.16576 39958 ft 462 kts 271°
2026-04-21 03:07 41.72205 37.07972 39961 ft 462 kts 271°
2026-04-21 03:07 41.72378 36.99367 39959 ft 462 kts 271°
2026-04-21 03:08 41.72544 36.90813 39952 ft 462 kts 271°
2026-04-21 03:08 41.72704 36.82211 39948 ft 462 kts 271°
2026-04-21 03:09 41.72858 36.73603 39949 ft 463 kts 271°
2026-04-21 03:09 41.73006 36.64963 39946 ft 463 kts 271°
2026-04-21 03:10 41.73147 36.56351 39945 ft 463 kts 271°
2026-04-21 03:10 41.73280 36.47798 39941 ft 462 kts 271°
2026-04-21 03:11 41.73408 36.39194 39939 ft 462 kts 271°
2026-04-21 03:11 41.73530 36.30577 39934 ft 462 kts 271°
2026-04-21 03:12 41.73646 36.21970 39934 ft 462 kts 271°
2026-04-21 03:12 41.73755 36.13354 39930 ft 462 kts 271°
2026-04-21 03:13 41.73857 36.04748 39928 ft 462 kts 271°
2026-04-21 03:13 41.73953 35.96146 39922 ft 462 kts 271°
2026-04-21 03:14 41.74042 35.87601 39918 ft 462 kts 271°
2026-04-21 03:14 41.74125 35.78999 39916 ft 461 kts 271°
2026-04-21 03:15 41.74201 35.70413 39920 ft 461 kts 271°
2026-04-21 03:15 41.74271 35.61817 39919 ft 461 kts 271°
2026-04-21 03:16 41.74335 35.53225 39919 ft 461 kts 271°
2026-04-21 03:16 41.74393 35.44653 39925 ft 461 kts 271°
2026-04-21 03:17 41.74443 35.36068 39931 ft 460 kts 271°
2026-04-21 03:17 41.74488 35.27541 39935 ft 460 kts 271°
2026-04-21 03:18 41.74526 35.18968 39939 ft 460 kts 271°
2026-04-21 03:18 41.74558 35.10414 39949 ft 460 kts 271°
2026-04-21 03:19 41.74583 35.01841 39951 ft 459 kts 271°
2026-04-21 03:19 41.74602 34.93336 39957 ft 459 kts 270°
2026-04-21 03:20 41.74615 34.84793 39958 ft 459 kts 270°
2026-04-21 03:20 41.74621 34.76251 39964 ft 459 kts 270°
2026-04-21 03:21 41.74621 34.67713 39964 ft 458 kts 270°
2026-04-21 03:21 41.74967 34.59200 39962 ft 458 kts 280°
2026-04-21 03:22 41.76571 34.50969 39964 ft 458 kts 286°
2026-04-21 03:22 41.78465 34.42861 39956 ft 458 kts 287°
2026-04-21 03:23 41.80401 34.34730 39964 ft 458 kts 287°
2026-04-21 03:23 41.82313 34.26591 39955 ft 458 kts 287°
2026-04-21 03:24 41.84208 34.18430 39955 ft 458 kts 286°
2026-04-21 03:24 41.86091 34.10272 39953 ft 457 kts 287°
2026-04-21 03:25 41.87965 34.02123 39946 ft 457 kts 286°
2026-04-21 03:25 41.89836 33.93968 39952 ft 456 kts 286°
2026-04-21 03:26 41.91684 33.85876 39945 ft 456 kts 286°
2026-04-21 03:26 41.93537 33.77736 39948 ft 455 kts 286°
2026-04-21 03:27 41.95381 33.69608 39946 ft 455 kts 286°
2026-04-21 03:27 41.97049 33.61394 39945 ft 454 kts 283°
2026-04-21 03:28 41.98562 33.53199 39941 ft 454 kts 283°
2026-04-21 03:28 42.00099 33.44964 39941 ft 454 kts 283°
2026-04-21 03:29 42.01659 33.36750 39936 ft 453 kts 284°
2026-04-21 03:29 42.03225 33.28529 39932 ft 453 kts 284°
2026-04-21 03:30 42.04783 33.20316 39931 ft 452 kts 284°
2026-04-21 03:30 42.06331 33.12114 39926 ft 452 kts 283°
2026-04-21 03:31 42.07889 33.03904 39922 ft 452 kts 284°
2026-04-21 03:31 42.09554 32.95791 39919 ft 452 kts 285°
2026-04-21 03:32 42.11257 32.87618 39918 ft 453 kts 285°
2026-04-21 03:32 42.12933 32.79449 39915 ft 453 kts 284°
2026-04-21 03:33 42.14596 32.71246 39913 ft 453 kts 284°
2026-04-21 03:33 42.16247 32.63053 39914 ft 453 kts 284°
2026-04-21 03:34 42.17894 32.54845 39910 ft 453 kts 284°
2026-04-21 03:34 42.19520 32.46694 39911 ft 454 kts 284°
2026-04-21 03:35 42.21153 32.38472 39915 ft 454 kts 284°
2026-04-21 03:35 42.22782 32.30241 39914 ft 454 kts 284°
2026-04-21 03:36 42.24411 32.21980 39912 ft 454 kts 284°
2026-04-21 03:36 42.26031 32.13742 39915 ft 454 kts 284°
2026-04-21 03:37 42.27645 32.05482 39911 ft 455 kts 284°
2026-04-21 03:37 42.29247 31.97255 39912 ft 455 kts 284°
2026-04-21 03:38 42.30852 31.88993 39914 ft 455 kts 284°
2026-04-21 03:38 42.32455 31.80708 39915 ft 455 kts 284°
2026-04-21 03:39 42.34052 31.72425 39913 ft 455 kts 284°
2026-04-21 03:39 42.35645 31.64131 39910 ft 456 kts 283°
2026-04-21 03:40 42.37223 31.55875 39915 ft 456 kts 283°
2026-04-21 03:40 42.38802 31.47576 39912 ft 456 kts 283°
2026-04-21 03:41 42.40114 31.40659 39912 ft 456 kts 283°
2026-04-21 03:41 42.41949 31.30939 39912 ft 456 kts 283°
2026-04-21 03:42 42.43512 31.22619 39912 ft 456 kts 283°
2026-04-21 03:42 42.44808 31.15689 39912 ft 456 kts 283°
2026-04-21 03:43 42.46364 31.07358 39908 ft 456 kts 283°
2026-04-21 03:43 42.47898 30.99084 39911 ft 456 kts 283°
2026-04-21 03:44 42.49434 30.90740 39910 ft 456 kts 283°
2026-04-21 03:44 42.50965 30.82391 39907 ft 456 kts 283°
2026-04-21 03:45 42.52489 30.74051 39910 ft 456 kts 283°
2026-04-21 03:45 42.54008 30.65707 39900 ft 456 kts 283°
2026-04-21 03:46 42.55513 30.57403 39911 ft 455 kts 283°
2026-04-21 03:46 42.57018 30.49058 39910 ft 455 kts 283°
2026-04-21 03:47 42.58518 30.40705 39907 ft 455 kts 283°
2026-04-21 03:47 42.60057 30.32367 39906 ft 455 kts 287°
2026-04-21 03:48 42.62659 30.24610 39911 ft 456 kts 302°
2026-04-21 03:48 42.66637 30.17807 39906 ft 458 kts 309°
2026-04-21 03:49 42.70854 30.11386 39905 ft 458 kts 310°
2026-04-21 03:49 42.75120 30.04957 39907 ft 457 kts 310°
2026-04-21 03:50 42.79359 29.98499 39916 ft 457 kts 309°
2026-04-21 03:50 42.83578 29.92020 39906 ft 456 kts 309°
2026-04-21 03:51 42.87785 29.85534 39904 ft 456 kts 309°
2026-04-21 03:51 42.91963 29.79080 39915 ft 456 kts 309°
2026-04-21 03:52 42.96163 29.72580 39909 ft 456 kts 309°
2026-04-21 03:52 43.00371 29.66055 39911 ft 457 kts 309°
2026-04-21 03:53 43.04565 29.59535 39909 ft 457 kts 309°
2026-04-21 03:53 43.08760 29.52999 39912 ft 457 kts 309°
2026-04-21 03:54 43.12931 29.46487 39915 ft 457 kts 309°
2026-04-21 03:54 43.17116 29.39938 39914 ft 457 kts 309°
2026-04-21 03:55 43.21306 29.33366 39915 ft 456 kts 309°
2026-04-21 03:55 43.25480 29.26803 39915 ft 456 kts 309°
2026-04-21 03:56 43.29616 29.20287 39918 ft 455 kts 309°
2026-04-21 03:56 43.33763 29.13739 39917 ft 454 kts 309°
2026-04-21 03:57 43.37893 29.07203 39918 ft 452 kts 309°
2026-04-21 03:57 43.42017 29.00661 39921 ft 451 kts 309°
2026-04-21 03:58 43.46100 28.94168 39923 ft 449 kts 309°
2026-04-21 03:58 43.50185 28.87659 39926 ft 448 kts 309°
2026-04-21 03:59 43.54261 28.81150 39924 ft 448 kts 309°
2026-04-21 04:00 43.60330 28.71429 39924 ft 447 kts 309°
2026-04-21 04:00 43.64388 28.64912 39929 ft 447 kts 309°
2026-04-21 04:01 43.68434 28.58399 39928 ft 447 kts 308°
2026-04-21 04:01 43.72473 28.51864 39915 ft 446 kts 307°
2026-04-21 04:02 43.76061 28.44870 39926 ft 445 kts 302°
2026-04-21 04:02 43.79476 28.37716 39915 ft 445 kts 301°
2026-04-21 04:03 43.82836 28.30578 39917 ft 445 kts 301°
2026-04-21 04:03 43.86217 28.23384 39936 ft 445 kts 301°
2026-04-21 04:04 43.89596 28.16196 39923 ft 445 kts 301°
2026-04-21 04:04 43.92971 28.09006 39929 ft 445 kts 301°
2026-04-21 04:05 43.96343 28.01805 39934 ft 445 kts 301°
2026-04-21 04:05 43.99711 27.94594 39952 ft 445 kts 301°
2026-04-21 04:06 44.03074 27.87374 39937 ft 446 kts 301°
2026-04-21 04:06 44.06440 27.80130 39947 ft 446 kts 301°
2026-04-21 04:07 44.09803 27.72874 39941 ft 446 kts 301°
2026-04-21 04:07 44.13164 27.65605 39958 ft 447 kts 301°
2026-04-21 04:08 44.16523 27.58320 39955 ft 447 kts 301°
2026-04-21 04:08 44.19879 27.51025 39944 ft 447 kts 301°
2026-04-21 04:09 44.23209 27.43768 39961 ft 447 kts 301°
2026-04-21 04:09 44.26563 27.36440 39961 ft 448 kts 301°
2026-04-21 04:10 44.29912 27.29106 39952 ft 448 kts 301°
2026-04-21 04:10 44.33255 27.21765 39954 ft 448 kts 301°
2026-04-21 04:11 44.36599 27.14403 39968 ft 449 kts 301°
2026-04-21 04:11 44.39945 27.07018 39955 ft 449 kts 300°
2026-04-21 04:12 44.43290 26.99616 39957 ft 450 kts 300°
2026-04-21 04:12 44.46632 26.92202 39959 ft 451 kts 300°
2026-04-21 04:13 44.49979 26.84757 39959 ft 452 kts 300°
2026-04-21 04:13 44.53326 26.77293 39955 ft 452 kts 300°
2026-04-21 04:14 44.56650 26.69862 39958 ft 453 kts 300°
2026-04-21 04:14 44.59988 26.62378 39958 ft 453 kts 300°
2026-04-21 04:15 44.63333 26.54860 39962 ft 454 kts 300°
2026-04-21 04:15 44.66673 26.47334 39963 ft 454 kts 300°
2026-04-21 04:16 44.70010 26.39794 39961 ft 454 kts 300°
2026-04-21 04:16 44.73345 26.32240 39962 ft 454 kts 300°
2026-04-21 04:17 44.76667 26.24693 39959 ft 454 kts 300°
2026-04-21 04:17 44.79967 26.17179 39960 ft 454 kts 300°
2026-04-21 04:18 44.83281 26.09611 39958 ft 454 kts 300°
2026-04-21 04:18 44.86592 26.02031 39956 ft 454 kts 300°
2026-04-21 04:19 44.89897 25.94446 39953 ft 454 kts 300°
2026-04-21 04:19 44.93203 25.86834 39949 ft 454 kts 300°
2026-04-21 04:20 44.96480 25.79272 39948 ft 454 kts 300°
2026-04-21 04:20 44.99770 25.71658 39948 ft 454 kts 300°
2026-04-21 04:21 45.03057 25.64032 39953 ft 454 kts 300°
2026-04-21 04:21 45.06338 25.56398 39948 ft 454 kts 300°
2026-04-21 04:22 45.09616 25.48750 39948 ft 454 kts 300°
2026-04-21 04:22 45.12890 25.41091 39945 ft 455 kts 300°
2026-04-21 04:23 45.16160 25.33422 39948 ft 455 kts 300°
2026-04-21 04:23 45.19402 25.25795 39948 ft 455 kts 300°
2026-04-21 04:24 45.22668 25.18095 39943 ft 455 kts 300°
2026-04-21 04:24 45.25927 25.10386 39946 ft 455 kts 300°
2026-04-21 04:25 45.29179 25.02676 39944 ft 455 kts 300°
2026-04-21 04:25 45.32420 24.94970 39945 ft 454 kts 300°
2026-04-21 04:26 45.35652 24.87264 39949 ft 453 kts 300°
2026-04-21 04:26 45.38876 24.79555 39946 ft 453 kts 300°
2026-04-21 04:27 45.42075 24.71886 39941 ft 453 kts 300°
2026-04-21 04:27 45.45293 24.64149 39948 ft 453 kts 300°
2026-04-21 04:28 45.48501 24.56417 39947 ft 454 kts 300°
2026-04-21 04:28 45.51709 24.48659 39946 ft 454 kts 300°
2026-04-21 04:29 45.54895 24.40937 39949 ft 449 kts 300°
2026-04-21 04:29 45.58037 24.33299 39945 ft 449 kts 299°
2026-04-21 04:30 45.60662 24.26901 39943 ft 448 kts 299°
2026-04-21 04:30 45.63814 24.19201 39941 ft 449 kts 299°
2026-04-21 04:31 45.66963 24.11489 39954 ft 446 kts 299°
2026-04-21 04:31 45.70068 24.03861 39937 ft 442 kts 299°
2026-04-21 04:32 45.73156 23.96253 39938 ft 442 kts 299°
2026-04-21 04:32 45.76238 23.88639 39943 ft 442 kts 299°
2026-04-21 04:33 45.79313 23.81023 39948 ft 442 kts 298°
2026-04-21 04:33 45.82387 23.73388 39953 ft 442 kts 298°
2026-04-21 04:34 45.85438 23.65788 39957 ft 442 kts 298°
2026-04-21 04:34 45.88504 23.58131 39965 ft 443 kts 298°
2026-04-21 04:35 45.91574 23.50445 39963 ft 444 kts 298°
2026-04-21 04:35 45.94640 23.42742 39965 ft 444 kts 298°
2026-04-21 04:36 45.97705 23.35024 39966 ft 445 kts 298°
2026-04-21 04:36 46.00766 23.27294 39969 ft 445 kts 298°
2026-04-21 04:37 46.03806 23.19594 39970 ft 445 kts 298°
2026-04-21 04:37 46.06865 23.11825 39977 ft 446 kts 298°
2026-04-21 04:38 46.09919 23.04046 39982 ft 446 kts 298°
2026-04-21 04:38 46.12972 22.96249 39980 ft 447 kts 298°
2026-04-21 04:39 46.16024 22.88428 39990 ft 447 kts 298°
2026-04-21 04:39 46.18766 22.81387 39990 ft 448 kts 298°
2026-04-21 04:40 46.21819 22.73523 39993 ft 449 kts 298°
2026-04-21 04:40 46.24844 22.65709 39997 ft 449 kts 298°
2026-04-21 04:41 46.27893 22.57813 39996 ft 450 kts 298°
2026-04-21 04:41 46.30938 22.49902 39997 ft 451 kts 297°
2026-04-21 04:42 46.33986 22.41959 40002 ft 452 kts 297°
2026-04-21 04:42 46.37031 22.34002 40006 ft 452 kts 298°
2026-04-21 04:43 46.40078 22.26018 40004 ft 453 kts 297°
2026-04-21 04:43 46.43122 22.18016 40003 ft 453 kts 297°
2026-04-21 04:44 46.46158 22.10011 40006 ft 453 kts 297°
2026-04-21 04:44 46.49174 22.02037 40005 ft 454 kts 297°
2026-04-21 04:45 46.52207 21.93996 40005 ft 454 kts 297°
2026-04-21 04:45 46.55233 21.85946 40000 ft 454 kts 297°
2026-04-21 04:46 46.58261 21.77870 40005 ft 454 kts 297°
2026-04-21 04:46 46.61278 21.69797 40004 ft 454 kts 297°
2026-04-21 04:47 46.64292 21.61707 40007 ft 455 kts 297°
2026-04-21 04:47 46.67281 21.53663 40003 ft 455 kts 297°
2026-04-21 04:48 46.70004 21.45338 40005 ft 454 kts 293°
2026-04-21 04:48 46.72479 21.36871 40006 ft 455 kts 292°
2026-04-21 04:49 46.74919 21.28359 40005 ft 455 kts 292°
2026-04-21 04:49 46.77357 21.19827 40004 ft 455 kts 292°
2026-04-21 04:50 46.79792 21.11294 40006 ft 455 kts 292°
2026-04-21 04:50 46.82223 21.02758 40006 ft 456 kts 292°
2026-04-21 04:51 46.84636 20.94254 40007 ft 456 kts 292°
2026-04-21 04:51 46.87061 20.85679 40005 ft 456 kts 292°
2026-04-21 04:52 46.89479 20.77100 40008 ft 457 kts 292°
2026-04-21 04:52 46.91893 20.68499 40008 ft 457 kts 292°
2026-04-21 04:53 46.94302 20.59889 40009 ft 457 kts 292°
2026-04-21 04:53 46.96706 20.51266 40010 ft 457 kts 292°
2026-04-21 04:54 46.99102 20.42636 40015 ft 457 kts 292°
2026-04-21 04:54 47.01496 20.33988 40018 ft 457 kts 292°
2026-04-21 04:55 47.03883 20.25333 40019 ft 458 kts 292°
2026-04-21 04:55 47.06262 20.16674 40021 ft 458 kts 292°
2026-04-21 04:56 47.08624 20.08044 40017 ft 458 kts 292°
2026-04-21 04:56 47.10993 19.99357 40022 ft 458 kts 292°
2026-04-21 04:57 47.13353 19.90676 40014 ft 458 kts 292°
2026-04-21 04:57 47.15707 19.81982 40018 ft 458 kts 292°
2026-04-21 04:58 47.18043 19.73323 40015 ft 458 kts 292°
2026-04-21 04:58 47.20385 19.64607 40020 ft 458 kts 292°
2026-04-21 04:59 47.22719 19.55892 40019 ft 458 kts 292°
2026-04-21 04:59 47.23891 19.51504 39883 ft 460 kts 292°
2026-04-21 04:59 47.25058 19.47125 39517 ft 461 kts 292°
2026-04-21 04:59 47.26215 19.42776 38987 ft 462 kts 292°
2026-04-21 05:00 47.27399 19.38316 38293 ft 462 kts 292°
2026-04-21 05:00 47.28554 19.33962 37548 ft 463 kts 291°
2026-04-21 05:00 47.30885 19.25141 36160 ft 461 kts 291°
2026-04-21 05:01 47.32035 19.20779 35820 ft 452 kts 291°
2026-04-21 05:01 47.33167 19.16476 35572 ft 449 kts 291°
2026-04-21 05:01 47.34295 19.12181 35342 ft 449 kts 291°
2026-04-21 05:01 47.35487 19.07935 34964 ft 446 kts 294°
2026-04-21 05:02 47.36780 19.03780 34241 ft 447 kts 295°
2026-04-21 05:02 47.38125 18.99653 33605 ft 445 kts 295°
2026-04-21 05:02 47.39456 18.95592 33081 ft 439 kts 295°
2026-04-21 05:02 47.40768 18.91545 32558 ft 434 kts 295°
2026-04-21 05:03 47.42048 18.87534 32045 ft 430 kts 295°
2026-04-21 05:03 47.43303 18.83553 31518 ft 426 kts 294°
2026-04-21 05:03 47.44525 18.79639 31013 ft 422 kts 294°
2026-04-21 05:03 47.45742 18.75718 30507 ft 418 kts 294°
2026-04-21 05:04 47.46949 18.71817 29992 ft 415 kts 294°
2026-04-21 05:04 47.48139 18.67966 29452 ft 410 kts 294°
2026-04-21 05:04 47.49319 18.64145 28945 ft 405 kts 294°
2026-04-21 05:04 47.50476 18.60390 28471 ft 400 kts 294°
2026-04-21 05:05 47.51623 18.56669 27992 ft 395 kts 294°
2026-04-21 05:05 47.52754 18.52993 27513 ft 390 kts 294°
2026-04-21 05:05 47.53822 18.49326 27040 ft 386 kts 290°
2026-04-21 05:05 47.54676 18.45580 26588 ft 382 kts 288°
2026-04-21 05:06 47.55489 18.41854 26127 ft 379 kts 288°
2026-04-21 05:06 47.56288 18.38152 25654 ft 376 kts 288°
2026-04-21 05:06 47.57076 18.34477 25183 ft 373 kts 288°
2026-04-21 05:06 47.57856 18.30824 24731 ft 370 kts 288°
2026-04-21 05:07 47.58627 18.27197 24253 ft 368 kts 288°
2026-04-21 05:07 47.59382 18.23636 23788 ft 366 kts 288°
2026-04-21 05:07 47.60143 18.20041 23272 ft 364 kts 288°
2026-04-21 05:07 47.60898 18.16471 22781 ft 361 kts 288°
2026-04-21 05:08 47.61642 18.12943 22319 ft 357 kts 288°
2026-04-21 05:08 47.62377 18.09450 21852 ft 353 kts 288°
2026-04-21 05:08 47.63105 18.05987 21389 ft 350 kts 288°
2026-04-21 05:08 47.63826 18.02548 20918 ft 347 kts 288°
2026-04-21 05:09 47.64540 17.99138 20460 ft 345 kts 288°
2026-04-21 05:09 47.65249 17.95748 19999 ft 342 kts 288°
2026-04-21 05:09 47.65953 17.92379 19540 ft 340 kts 288°
2026-04-21 05:09 47.66649 17.89039 19080 ft 339 kts 288°
2026-04-21 05:10 47.67343 17.85703 18629 ft 337 kts 288°
2026-04-21 05:10 47.68032 17.82383 18138 ft 336 kts 288°
2026-04-21 05:10 47.68716 17.79087 17659 ft 333 kts 288°
2026-04-21 05:10 47.69385 17.75852 17213 ft 330 kts 288°
2026-04-21 05:11 47.70055 17.72610 16765 ft 327 kts 288°
2026-04-21 05:11 47.70718 17.69398 16323 ft 324 kts 288°
2026-04-21 05:11 47.71375 17.66207 15872 ft 322 kts 288°
2026-04-21 05:11 47.72027 17.63037 15420 ft 320 kts 288°
2026-04-21 05:12 47.72675 17.59885 14988 ft 318 kts 288°
2026-04-21 05:12 47.73319 17.56745 14544 ft 317 kts 288°
2026-04-21 05:12 47.73957 17.53628 14109 ft 316 kts 288°
2026-04-21 05:12 47.74491 17.50463 13663 ft 315 kts 279°
2026-04-21 05:13 47.74532 17.47209 13228 ft 316 kts 267°
2026-04-21 05:13 47.74316 17.44011 12787 ft 314 kts 265°
2026-04-21 05:13 47.74072 17.40795 12355 ft 312 kts 266°
2026-04-21 05:13 47.73835 17.37592 11928 ft 310 kts 266°
2026-04-21 05:14 47.73603 17.34409 11488 ft 308 kts 266°
2026-04-21 05:14 47.73375 17.31247 11062 ft 306 kts 266°
2026-04-21 05:14 47.73152 17.28165 10917 ft 294 kts 266°
2026-04-21 05:14 47.72937 17.25205 10784 ft 283 kts 266°
2026-04-21 05:15 47.72730 17.22351 10647 ft 272 kts 266°
2026-04-21 05:15 47.72531 17.19608 10514 ft 262 kts 267°
2026-04-21 05:15 47.72338 17.16929 10194 ft 260 kts 267°
2026-04-21 05:15 47.72144 17.14251 9857 ft 259 kts 267°
2026-04-21 05:16 47.71952 17.11564 9602 ft 270 kts 267°
2026-04-21 05:16 47.71752 17.08793 9490 ft 265 kts 267°
2026-04-21 05:16 47.71758 17.06129 9318 ft 252 kts 282°
2026-04-21 05:16 47.72358 17.03770 9117 ft 240 kts 304°
2026-04-21 05:17 47.73342 17.01795 8824 ft 236 kts 310°
2026-04-21 05:17 47.74379 16.99928 8574 ft 231 kts 310°
2026-04-21 05:17 47.75365 16.98150 8330 ft 216 kts 310°
2026-04-21 05:17 47.76299 16.96454 7928 ft 209 kts 309°
2026-04-21 05:18 47.76905 16.95348 7615 ft 207 kts 309°
2026-04-21 05:18 47.77801 16.93705 7197 ft 202 kts 309°
2026-04-21 05:18 47.78970 16.91554 6826 ft 201 kts 308°
2026-04-21 05:18 47.79557 16.90472 6661 ft 198 kts 308°
2026-04-21 05:19 47.80693 16.88374 6342 ft 194 kts 308°
2026-04-21 05:19 47.81259 16.87328 6192 ft 192 kts 308°
2026-04-21 05:19 47.82365 16.85279 5893 ft 191 kts 308°
2026-04-21 05:19 47.83198 16.83736 5671 ft 191 kts 308°
2026-04-21 05:20 47.83759 16.82696 5519 ft 190 kts 308°
2026-04-21 05:20 47.84588 16.81161 5299 ft 190 kts 308°
2026-04-21 05:20 47.85681 16.79129 5001 ft 190 kts 309°
2026-04-21 05:20 47.86229 16.78111 4829 ft 189 kts 309°
2026-04-21 05:21 47.87053 16.76581 4619 ft 190 kts 309°
2026-04-21 05:21 47.87877 16.75051 4493 ft 190 kts 309°
2026-04-21 05:21 47.88691 16.73539 4427 ft 190 kts 309°
2026-04-21 05:21 47.89529 16.71983 4346 ft 189 kts 309°
2026-04-21 05:22 47.90351 16.70454 4265 ft 189 kts 309°
2026-04-21 05:22 47.91178 16.68915 4162 ft 190 kts 309°
2026-04-21 05:22 47.91999 16.67388 4059 ft 186 kts 309°
2026-04-21 05:22 47.92911 16.66067 3807 ft 181 kts 326°
2026-04-21 05:23 47.94055 16.65363 3629 ft 173 kts 343°
2026-04-21 05:23 47.95181 16.64917 3505 ft 163 kts 342°
2026-04-21 05:23 47.96252 16.64462 3294 ft 158 kts 342°
2026-04-21 05:23 47.97279 16.64021 3069 ft 148 kts 342°
2026-04-21 05:24 47.98243 16.63612 2870 ft 139 kts 342°
2026-04-21 05:24 47.99146 16.63232 2669 ft 130 kts 342°
2026-04-21 05:24 47.99998 16.62874 2511 ft 126 kts 342°
2026-04-21 05:24 48.00844 16.62516 2330 ft 127 kts 342°
2026-04-21 05:25 48.01695 16.62157 2157 ft 127 kts 342°
2026-04-21 05:25 48.02543 16.61800 1973 ft 127 kts 342°
2026-04-21 05:25 48.03393 16.61441 1804 ft 127 kts 342°
2026-04-21 05:25 48.04241 16.61082 1606 ft 127 kts 343°
2026-04-21 05:26 48.05098 16.60721 1430 ft 129 kts 344°
2026-04-21 05:26 48.05958 16.60370 1257 ft 128 kts 343°
2026-04-21 05:26 48.06806 16.59999 1053 ft 127 kts 343°
2026-04-21 05:26 48.07658 16.59633 914 ft 129 kts 343°
2026-04-21 05:27 48.08531 16.59270 728 ft 130 kts 342°
2026-04-21 05:27 48.09386 16.58906 630 ft 119 kts 344°
2026-04-21 05:27 48.10072 16.58622 629 ft 85 kts 344°
2026-04-21 05:27 48.10527 16.58429 620 ft 52 kts 344°
2026-04-21 05:28 48.10821 16.58305 618 ft 35 kts 344°
2026-04-21 05:28 48.10986 16.58196 629 ft 22 kts 317°
2026-04-21 05:28 48.11059 16.58017 621 ft 18 kts 297°
2026-04-21 05:28 48.11114 16.57853 625 ft 12 kts 296°
2026-04-21 05:29 48.11144 16.57758 631 ft 11 kts 295°
2026-04-21 05:29 48.11180 16.57644 626 ft 13 kts 295°
2026-04-21 05:29 48.11223 16.57512 627 ft 15 kts 296°
2026-04-21 05:29 48.11271 16.57363 630 ft 17 kts 296°
2026-04-21 05:30 48.11324 16.57198 627 ft 18 kts 296°
2026-04-21 05:30 48.11382 16.57017 630 ft 20 kts 296°
2026-04-21 05:30 48.11445 16.56828 628 ft 21 kts 297°
2026-04-21 05:30 48.11513 16.56628 623 ft 22 kts 297°
2026-04-21 05:31 48.11577 16.56429 627 ft 14 kts 294°
2026-04-21 05:31 48.11599 16.56355 623 ft 0 kts 295°
2026-04-21 05:31 48.11600 16.56353 624 ft 0 kts 295°
2026-04-21 05:32 48.11601 16.56352 624 ft 1 kts 295°
2026-04-21 05:32 48.11610 16.56321 626 ft 6 kts 295°
2026-04-21 05:32 48.11644 16.56269 628 ft 8 kts 345°
2026-04-21 05:32 48.11711 16.56286 629 ft 12 kts 23°
2026-04-21 05:33 48.11767 16.56317 624 ft 4 kts 359°
2026-04-21 05:33 48.11791 16.56287 618 ft 6 kts 308°
2026-04-21 05:33 48.11815 16.56236 628 ft 2 kts 302°
2026-04-21 05:33 48.11819 16.56228 627 ft 0 kts 303°
2026-04-21 05:34 48.11819 16.56227 627 ft 0 kts 303°